GEFSMW_con_probscp_150.txt.gz
Probability
57 62 64 62 57 52 50 50 48 41 31 22 14 7 2 0 0 0 1 2 3 4 4 3 1 0 0 0 0 0 0 0 0 0 0 0 0 0 0 0 0 0 0
56 59 61 59 56 52 49 47 44 37 28 20 12 6 1 0 0 0 0 1 2 3 3 3 2 1 0 0 0 0 0 0 0 0 0 0 0 0 0 0 0 0 0
57 56 55 54 51 49 44 40 35 29 23 16 10 5 2 1 1 0 0 0 1 1 2 2 1 1 0 0 0 0 0 0 0 0 0 0 0 0 0 0 0 0 0
60 58 53 48 45 42 36 30 26 23 19 14 9 6 4 3 2 1 0 0 0 0 0 0 0 0 0 0 0 0 0 0 0 0 0 0 0 0 0 0 0 0 0
62 58 51 43 39 35 30 24 21 20 17 13 9 6 4 4 3 2 1 0 0 0 0 0 0 0 0 0 0 0 0 0 0 0 0 0 0 0 0 0 0 0 0
60 55 46 38 33 30 26 21 17 16 14 12 8 5 4 3 3 3 2 0 0 0 0 0 0 0 0 0 0 0 0 0 0 0 0 0 0 0 0 0 0 0 0
54 49 42 35 30 27 23 18 14 12 10 8 6 4 3 2 2 2 1 0 0 0 0 0 0 0 0 0 0 0 0 0 0 0 0 0 0 0 0 0 0 0 0
46 41 36 33 30 26 22 17 12 8 5 4 3 3 1 1 1 1 0 0 0 0 0 0 0 0 0 0 0 0 0 0 0 0 0 0 0 0 0 0 0 0 0
35 32 30 30 29 25 20 15 10 5 2 1 1 1 0 0 0 0 0 0 0 0 0 0 0 0 1 1 1 1 0 0 0 0 0 0 0 0 0 0 0 0 0
26 25 24 25 25 21 16 11 7 2 0 0 0 0 0 1 1 1 0 0 0 0 0 0 1 1 2 2 2 1 0 0 0 0 0 0 0 0 0 0 0 0 0
23 22 19 18 17 16 13 9 5 1 0 0 0 0 1 2 3 2 1 0 1 1 1 1 2 2 3 3 3 2 1 1 1 0 0 0 0 0 0 0 0 0 0
27 24 19 13 12 12 10 7 5 2 1 1 1 1 2 3 3 2 1 0 1 2 1 1 2 2 2 3 3 3 3 2 2 1 0 0 0 0 0 0 0 0 0
34 29 19 11 10 10 8 7 6 5 4 3 3 3 4 4 3 1 0 0 1 2 1 0 1 1 1 3 4 4 4 3 3 3 2 1 1 1 1 1 0 0 0
39 32 20 11 8 9 9 9 9 8 6 6 6 6 5 5 3 1 1 1 1 1 0 0 0 0 2 4 5 6 5 4 4 4 4 3 2 2 2 2 1 1 1
38 33 23 14 10 10 11 11 11 10 9 8 7 6 6 5 5 4 4 4 4 3 2 2 1 1 2 4 6 6 6 4 3 4 4 3 2 1 1 2 2 2 2
38 35 28 21 16 14 13 12 10 9 10 9 7 6 6 6 7 7 8 8 8 7 7 6 4 2 3 3 4 5 5 4 3 3 3 3 2 0 0 1 1 1 2
41 39 32 25 21 18 15 12 9 8 8 8 8 7 8 8 7 8 8 9 9 9 10 9 6 4 3 2 1 2 4 4 3 3 3 3 2 1 1 0 0 0 1
41 38 31 24 21 19 16 12 9 8 8 8 8 8 9 7 6 6 6 6 7 8 9 8 6 4 2 1 0 0 1 2 3 3 3 3 3 2 1 0 0 0 0
38 35 28 22 17 16 14 11 9 9 9 9 8 8 8 8 6 6 5 5 4 5 6 5 4 2 2 1 0 0 1 2 2 3 3 3 3 3 1 0 0 0 0
35 32 27 21 14 11 11 10 9 9 9 8 8 7 7 8 7 7 6 5 4 4 4 3 2 1 1 1 0 0 1 2 2 2 3 3 3 2 1 1 1 1 0
30 28 24 17 10 7 7 7 7 6 6 6 5 4 5 6 7 7 6 6 5 4 4 3 3 2 1 0 0 0 1 2 2 3 3 3 3 1 0 1 2 2 1
24 23 19 13 7 4 4 5 4 3 3 2 2 2 2 3 4 5 5 5 6 5 4 3 3 2 1 0 0 0 0 1 2 3 3 3 2 1 0 1 1 1 0
19 18 15 9 3 1 1 2 2 1 0 0 0 1 1 2 3 4 4 4 5 4 3 2 2 2 1 0 0 0 0 0 1 1 2 2 2 1 0 0 0 0 0
15 14 11 6 1 0 0 1 1 1 0 0 0 1 1 2 1 2 2 3 3 2 1 1 1 1 0 0 0 0 0 0 0 0 1 1 1 0 0 0 0 0 0
11 10 7 4 1 0 0 1 2 2 1 0 1 1 1 2 1 0 1 1 2 1 0 0 0 0 0 0 0 0 0 0 0 0 0 0 0 0 0 0 0 0 0
8 6 4 2 0 0 0 1 2 2 1 0 1 1 1 1 0 0 0 0 1 1 0 0 0 0 0 0 0 0 0 0 0 0 0 0 0 0 0 0 0 0 0

GEFSMW_con_probscp_156.txt.gz
Probability
11 13 18 23 24 24 21 16 10 5 3 2 2 1 0 0 0 0 0 0 0 0 0 1 0 0 0 0 0 0 0 0 0 0 0 0 0 0 0 0 0 0 0
17 20 24 24 24 23 22 18 12 7 4 3 2 1 0 0 0 0 0 0 0 0 0 1 0 0 0 0 0 0 0 0 0 0 0 0 0 0 0 0 0 0 0
27 29 30 27 24 22 22 20 15 9 5 3 2 1 0 0 0 0 0 0 0 0 0 0 0 0 0 0 0 0 0 0 0 0 0 0 0 0 0 0 0 0 0
31 33 33 30 26 23 21 20 15 8 4 3 3 2 1 1 0 0 0 0 0 0 0 0 0 0 0 0 0 0 0 0 0 0 0 0 0 0 0 0 0 0 0
31 33 32 28 24 20 18 17 12 6 4 3 3 2 2 2 1 0 0 0 0 0 0 0 0 0 0 0 0 0 0 0 0 0 0 0 0 0 0 0 0 0 0
31 32 28 22 18 14 12 12 9 5 4 3 2 1 2 2 1 0 0 0 0 0 0 0 0 0 0 0 0 0 0 0 0 0 0 0 0 0 0 0 0 0 0
29 29 24 16 12 10 10 9 7 5 4 2 1 0 1 1 0 0 0 0 0 0 0 0 0 0 0 0 0 0 0 0 0 0 0 0 0 0 0 0 0 0 0
23 23 19 14 10 9 10 10 8 5 3 2 1 0 0 0 0 0 0 0 0 0 0 0 0 0 0 0 0 0 0 0 0 0 0 0 0 0 0 0 0 0 0
15 17 17 14 11 10 10 10 8 4 3 3 1 0 0 0 0 0 0 0 0 0 0 0 0 0 0 0 0 0 0 0 0 0 0 0 0 0 0 0 0 0 0
10 13 16 15 11 9 8 8 6 4 3 3 2 0 0 0 0 0 0 0 0 0 0 0 0 0 0 0 0 0 0 0 0 0 0 0 0 0 0 0 0 0 0
11 12 14 15 13 9 7 5 4 3 2 2 1 0 0 0 1 1 0 0 0 0 0 0 0 0 0 0 0 0 0 0 0 0 0 0 0 0 0 0 0 0 0
14 14 15 15 14 9 5 4 3 1 1 1 0 1 1 1 2 1 0 0 0 0 0 0 0 0 0 0 0 0 0 0 1 1 2 1 1 1 0 0 0 0 0
16 16 16 15 12 8 5 3 2 1 0 1 1 2 2 3 2 1 0 0 0 0 0 0 0 0 0 0 0 0 0 0 1 2 3 3 2 2 1 1 0 0 0
17 18 17 14 11 8 5 4 3 2 1 2 3 3 3 3 2 1 0 1 1 0 1 1 1 2 2 1 2 2 1 1 2 3 3 3 3 3 2 2 1 0 0
19 19 18 15 11 8 7 6 5 4 3 3 3 3 3 2 1 1 1 3 3 2 3 4 4 5 5 4 4 4 3 3 3 4 4 3 3 3 2 1 1 0 0
20 20 18 15 12 11 10 9 7 5 4 3 3 3 2 1 1 2 4 5 5 5 5 6 6 6 6 5 3 3 3 3 5 5 5 4 3 2 1 1 0 0 0
20 18 16 14 13 13 13 10 7 4 3 3 3 2 2 2 2 3 5 6 6 6 6 6 6 6 5 4 2 1 1 2 4 5 4 3 3 3 2 1 1 1 0
18 17 15 13 12 14 13 10 5 3 3 2 1 1 1 2 2 3 4 5 6 5 4 3 3 3 3 2 1 0 0 1 2 3 3 3 3 3 2 2 2 2 1
18 17 15 13 12 13 13 9 5 4 3 1 1 1 2 2 2 2 3 4 4 4 2 1 1 1 1 1 0 0 0 0 1 2 2 2 2 2 1 1 3 3 3
18 17 16 13 12 11 10 8 6 5 3 1 1 2 2 1 1 1 1 2 2 1 1 0 0 0 0 0 0 0 0 0 0 1 1 1 1 1 0 1 2 3 3
15 15 14 11 9 7 7 6 4 3 2 0 0 1 1 0 0 0 0 1 1 0 0 0 0 0 0 0 0 0 0 0 0 0 0 0 0 0 0 1 2 2 2
15 14 10 7 5 4 3 3 1 1 0 0 0 0 0 0 0 0 0 1 2 1 0 0 0 0 0 0 0 0 0 0 0 0 0 0 0 0 0 0 1 1 1
16 14 9 5 3 2 1 1 0 0 0 0 0 0 0 0 0 0 0 1 2 2 2 1 0 0 0 0 0 0 0 0 0 0 0 0 0 0 0 0 0 0 0
14 13 9 5 2 1 0 0 0 0 0 0 0 0 0 0 0 0 0 0 1 2 3 2 1 0 0 0 0 0 0 0 0 0 0 0 0 0 0 0 0 0 0
10 9 7 5 2 0 0 0 0 0 0 0 0 0 0 0 0 0 0 0 0 1 2 2 1 0 0 0 0 0 0 0 0 0 0 0 0 0 0 0 0 0 0
5 5 4 3 2 0 0 0 0 0 0 0 0 0 0 0 0 0 0 0 0 0 0 1 1 0 0 0 0 0 0 0 0 0 0 0 0 0 0 0 0 0 0

GEFSMW_con_probscp_162.txt.gz
Probability
23 21 19 18 18 19 20 19 18 17 14 10 7 6 4 3 1 1 3 4 2 1 0 0 0 0 0 0 0 0 0 0 0 0 0 0 0 0 0 0 0 0 0
22 22 23 24 23 22 21 20 19 17 14 11 9 6 4 3 1 2 5 6 3 2 1 0 0 0 0 0 0 0 0 0 0 0 0 0 0 0 0 0 0 0 1
21 23 28 31 29 25 21 19 20 18 16 14 11 8 5 3 2 3 7 7 5 3 1 0 0 0 0 0 0 0 0 1 1 1 1 0 0 0 0 0 0 0 1
20 24 30 33 30 23 18 17 17 17 17 16 14 10 7 4 3 3 5 6 5 2 1 1 1 1 1 0 0 0 0 1 2 3 2 2 1 0 0 0 0 0 1
21 24 30 33 27 18 15 14 15 16 16 16 15 12 9 6 5 5 5 6 6 3 1 2 2 2 2 1 0 0 0 1 2 3 3 3 2 1 0 0 0 0 0
21 23 29 29 22 15 12 12 13 15 16 16 14 13 11 9 8 6 5 6 7 4 2 1 2 3 3 1 1 1 0 0 1 2 3 4 3 2 1 0 0 0 0
19 21 24 23 18 13 11 11 12 13 14 14 13 12 12 10 8 4 3 4 6 5 2 0 1 3 3 2 3 2 1 1 1 1 2 4 4 3 3 2 2 1 0
18 17 17 16 14 12 11 12 13 13 12 11 10 10 10 8 5 2 1 3 5 4 1 0 0 1 2 3 4 2 1 1 1 1 2 4 5 4 5 6 6 4 2
18 15 11 10 11 13 13 13 14 13 9 6 6 7 6 5 2 1 1 4 6 5 3 1 0 1 2 4 4 3 2 2 2 1 2 4 5 6 8 9 9 7 4
22 17 11 9 11 14 15 14 12 10 7 5 5 4 3 2 1 1 2 5 5 5 4 2 1 1 3 5 5 4 3 3 3 3 3 5 7 9 11 12 11 9 7
26 22 16 13 14 16 17 15 11 7 5 5 5 4 1 0 0 1 3 3 3 2 2 2 2 1 1 4 5 5 3 3 4 5 6 9 13 15 16 14 14 13 12
26 25 22 20 20 19 18 16 11 8 6 6 7 5 3 1 1 2 3 2 1 0 1 2 2 1 1 3 5 4 3 4 6 8 10 12 14 17 17 16 14 14 15
24 25 27 27 25 23 19 16 13 10 8 8 8 8 5 4 3 4 4 3 1 1 2 3 3 3 2 3 5 6 6 8 9 11 11 11 11 12 14 15 14 13 12
27 29 30 31 30 27 22 19 16 13 12 12 11 10 8 6 6 6 5 3 1 1 2 2 3 3 5 6 8 9 10 11 11 11 10 9 7 7 8 11 12 11 10
35 35 36 35 34 30 26 22 19 17 16 15 15 14 12 9 8 7 5 3 1 1 1 2 2 4 7 9 10 10 10 11 11 10 8 7 5 5 5 6 8 8 8
38 39 40 40 37 33 28 23 20 19 18 17 17 17 15 12 10 8 6 4 4 3 4 4 4 6 7 7 7 7 8 9 9 9 7 5 4 4 4 4 3 4 4
39 40 42 42 39 34 30 26 22 20 18 17 16 16 15 13 11 9 8 8 7 7 8 8 8 7 5 4 3 4 5 7 8 8 6 5 4 4 5 4 3 2 2
40 41 42 42 39 36 33 29 25 21 17 16 16 16 15 13 11 10 9 8 8 9 9 9 8 6 4 2 1 1 4 6 7 7 6 5 4 4 4 4 4 3 3
41 41 41 40 39 38 37 33 27 20 16 15 16 15 13 11 9 8 8 8 8 8 8 8 7 6 3 1 0 0 2 4 5 5 4 4 3 2 2 2 3 3 3
40 40 40 39 39 40 41 38 29 21 17 15 13 12 10 8 7 7 8 8 7 7 7 6 6 5 3 1 0 0 1 1 2 3 4 3 2 1 1 1 2 1 1
35 37 40 42 42 42 43 39 30 22 17 14 10 8 6 5 5 7 9 9 7 6 5 5 4 4 3 2 0 0 0 0 1 3 5 4 1 0 0 1 1 0 0
31 34 39 42 41 39 38 34 26 18 13 10 7 4 2 2 3 5 7 8 7 5 4 4 3 3 3 2 1 0 0 0 1 3 5 3 1 0 0 0 0 0 0
28 30 34 35 34 32 30 26 20 14 10 6 3 1 0 0 2 3 4 5 6 5 4 4 4 4 4 3 1 0 0 0 1 2 3 1 0 0 0 0 0 0 0
25 25 27 28 27 25 22 19 15 11 8 4 1 0 0 0 1 2 2 3 4 4 3 3 3 4 5 3 1 0 0 0 0 1 1 0 0 0 0 0 0 0 0
23 24 24 24 22 19 17 15 12 8 4 2 0 0 0 0 0 1 1 1 2 2 2 1 2 3 3 2 1 0 0 0 0 0 0 0 0 0 0 0 0 0 0
24 25 25 22 18 15 14 12 9 5 2 0 0 0 0 0 0 0 0 0 1 1 1 0 1 2 2 1 0 0 0 0 0 0 0 0 0 0 0 0 0 0 0

GEFSMW_con_probscp_168.txt.gz
Probability
75 79 81 78 76 76 73 66 60 59 55 46 35 24 15 10 8 11 12 11 11 9 5 3 5 6 4 1 2 4 3 1 1 0 0 0 0 1 2 2 1 1 2
76 79 80 78 77 78 75 68 62 60 56 48 37 27 20 14 12 13 14 14 13 11 7 4 4 5 3 2 4 6 4 2 2 1 0 0 0 1 2 2 2 2 2
75 77 78 77 77 79 77 71 67 64 59 52 40 32 26 20 16 15 17 18 17 13 8 5 4 3 2 2 4 6 5 4 3 2 0 0 0 2 3 3 3 4 5
72 75 76 74 73 74 74 74 71 64 59 54 43 34 27 21 18 17 19 20 19 14 10 7 6 4 3 3 3 4 5 4 3 2 0 0 0 1 2 3 3 4 6
68 73 74 71 68 67 67 69 68 60 55 50 42 33 25 20 17 16 18 20 18 14 12 10 9 7 5 4 4 5 6 5 3 1 0 0 0 1 1 1 2 3 3
64 69 72 69 66 62 59 59 60 56 49 42 36 31 25 19 16 14 15 16 14 12 10 10 9 8 7 6 7 8 7 5 3 2 2 1 1 1 0 0 1 1 1
60 65 69 68 65 59 55 54 54 51 47 39 34 31 26 20 16 14 13 12 10 8 7 8 9 8 7 7 8 8 8 6 5 5 6 5 4 3 1 0 0 0 0
55 60 64 65 63 58 54 53 51 49 45 38 32 30 26 20 16 16 14 11 8 5 5 7 9 9 6 6 6 7 6 7 9 10 11 10 6 3 2 1 0 0 0
50 54 58 58 58 58 57 56 52 46 40 34 30 28 25 19 16 17 15 12 9 6 6 8 9 8 7 6 5 5 5 8 13 15 15 12 7 5 4 3 3 2 1
49 52 54 54 56 59 62 59 53 45 38 33 29 25 22 19 17 16 15 13 11 9 8 8 8 7 7 7 7 6 5 8 12 15 16 16 13 10 9 8 7 6 4
50 54 58 59 59 61 64 61 53 46 40 35 30 26 23 20 17 15 14 13 10 8 8 7 6 6 7 9 9 8 7 7 10 12 16 20 20 17 16 13 9 8 7
53 58 64 66 64 61 62 60 53 47 41 37 32 29 26 22 18 15 14 13 12 9 7 6 6 6 7 9 10 10 10 10 10 11 15 20 22 21 19 14 9 8 9
55 62 68 69 67 63 61 57 52 46 42 39 36 34 30 25 22 20 17 16 16 14 10 8 8 8 9 10 10 11 12 13 12 12 13 17 19 19 16 12 8 8 9
61 66 71 72 71 68 62 56 50 46 43 41 41 40 35 30 27 24 21 20 19 17 14 12 11 11 11 9 8 9 11 12 12 12 12 12 13 13 11 8 7 7 7
66 71 75 77 75 71 65 59 53 49 46 44 44 44 39 34 31 28 24 22 21 18 15 14 14 12 9 5 4 6 8 9 10 11 10 9 9 8 7 6 5 5 5
72 76 80 82 79 73 68 65 61 54 49 46 45 44 40 35 32 28 24 23 22 19 17 15 14 11 6 3 2 3 5 6 7 9 9 9 7 6 5 5 4 3 3
78 81 84 84 79 72 70 71 66 57 51 46 44 42 39 35 31 27 23 22 21 20 19 16 12 9 5 2 2 2 3 5 6 8 9 8 6 4 4 4 3 3 2
81 83 83 80 75 71 69 69 65 58 52 47 44 42 39 35 31 27 23 21 21 20 19 15 10 8 5 2 1 1 1 3 5 7 8 7 5 2 2 3 2 2 2
82 82 78 74 71 69 66 63 60 56 51 48 46 43 38 33 30 27 23 20 19 17 14 11 9 8 5 2 0 0 0 1 4 5 5 5 3 1 1 2 3 2 2
81 80 74 70 69 67 63 59 57 54 50 47 45 41 38 33 29 27 23 19 15 11 9 8 8 7 4 2 0 0 0 0 1 2 3 3 2 0 0 2 3 2 2
77 74 70 67 65 62 59 57 56 52 47 43 41 40 38 33 28 25 20 14 11 8 7 7 8 6 3 2 0 0 0 0 0 2 4 3 1 0 0 1 2 1 1
67 64 61 61 58 55 53 53 51 47 42 38 36 36 35 29 22 18 14 10 8 6 5 5 6 5 3 2 1 0 0 0 0 2 4 3 1 0 0 0 0 0 0
57 56 55 55 53 49 47 46 43 39 36 32 29 29 26 20 14 11 8 6 4 4 4 4 4 4 3 3 1 1 0 0 0 1 1 1 0 0 0 0 0 0 0
52 52 53 52 49 44 39 37 36 33 29 25 22 20 16 11 8 6 3 2 2 2 2 3 3 3 3 3 3 2 1 1 0 0 0 0 0 0 0 0 0 0 0
51 50 48 45 41 36 32 30 29 27 23 20 18 14 9 5 3 2 1 0 1 1 1 1 2 2 2 2 2 2 2 1 0 0 0 0 0 0 0 0 0 0 0
50 47 42 37 32 29 27 26 25 23 21 18 15 10 5 2 1 0 0 0 0 0 0 0 1 1 1 1 1 1 1 1 0 0 0 0 0 0 0 0 0 0 0

GEFSMW_con_probscp_174.txt.gz
Probability
59 65 72 74 69 62 55 49 44 36 25 16 11 8 5 4 2 1 0 0 0 0 0 0 0 0 0 0 0 0 0 0 0 0 0 0 0 0 0 0 0 0 0
60 64 70 73 70 62 55 51 46 38 26 16 10 7 5 3 2 1 0 0 0 0 0 0 0 0 0 0 0 0 0 0 0 0 0 0 0 0 0 0 0 0 0
62 64 68 70 68 62 54 49 45 37 27 17 10 7 5 3 2 0 0 0 1 1 1 0 0 0 0 0 0 0 0 0 0 0 0 0 0 0 0 0 0 0 0
61 63 65 67 66 61 53 45 39 32 25 18 10 6 4 2 1 0 0 0 1 1 1 0 0 0 0 0 0 0 0 0 0 0 0 0 0 0 0 0 0 0 0
58 59 62 64 63 59 52 44 34 25 21 17 11 6 3 1 1 0 1 1 1 1 0 0 0 0 0 0 0 0 0 0 0 0 0 0 0 0 0 0 0 0 0
55 55 57 60 58 56 51 43 31 21 16 14 10 5 2 1 0 0 1 2 2 1 0 0 0 0 0 0 0 0 0 0 0 0 0 0 0 0 0 0 0 0 0
52 51 54 56 55 54 51 43 31 21 15 13 9 4 2 1 0 0 1 2 2 1 0 1 1 0 0 0 0 0 0 0 0 0 0 0 0 0 0 0 0 0 0
50 50 51 52 52 51 48 42 32 23 18 14 10 5 2 1 0 0 0 1 1 1 1 2 2 1 1 0 0 0 0 0 0 0 0 0 0 0 0 0 0 0 0
50 48 46 44 44 44 42 38 31 26 22 17 12 7 4 1 0 1 1 1 1 1 1 2 3 2 1 1 1 1 1 0 0 0 0 0 0 0 0 0 0 0 0
48 45 38 35 36 38 38 34 30 26 22 18 14 10 5 2 2 2 3 3 3 2 1 1 2 2 1 1 2 2 1 0 0 0 0 0 0 0 0 0 0 0 0
45 41 35 32 35 37 36 33 29 25 22 19 16 12 6 3 3 5 6 5 4 1 0 1 2 3 2 2 2 2 1 0 1 1 0 0 0 0 0 0 0 1 1
42 39 37 36 37 37 34 30 26 23 22 21 19 13 8 5 5 7 7 6 4 1 1 2 3 3 2 1 1 1 0 0 1 1 0 0 0 0 0 0 1 2 2
38 38 38 38 38 37 33 28 23 22 22 22 19 14 10 8 8 8 7 5 3 1 1 2 2 2 1 1 0 0 0 0 1 1 0 0 0 0 0 0 1 2 2
41 40 38 37 38 37 34 28 23 22 23 22 19 15 11 10 9 9 7 4 3 2 3 3 2 3 2 1 1 1 0 0 0 0 0 0 0 0 0 0 0 1 1
47 47 43 42 43 42 36 30 26 25 25 24 20 16 12 10 10 9 7 5 3 3 3 3 3 3 2 1 0 0 0 0 0 0 0 0 0 0 0 0 0 0 0
53 52 50 49 49 47 39 32 28 29 30 28 23 17 13 11 10 8 7 6 5 4 4 3 2 1 1 0 0 0 0 0 0 0 0 0 0 0 0 0 0 0 0
54 53 53 51 50 46 40 33 31 32 33 30 24 18 14 12 10 9 8 7 5 4 4 2 1 0 0 0 0 0 0 0 0 0 0 0 0 0 0 0 0 0 0
54 53 52 50 48 44 40 35 34 35 32 27 22 18 14 11 9 8 7 6 3 2 2 1 0 0 0 0 0 0 0 0 0 0 0 0 0 0 0 0 0 0 0
56 53 51 50 47 44 41 38 36 34 30 25 21 17 14 11 9 6 5 3 1 0 0 0 0 0 0 0 0 0 0 0 0 0 0 0 0 0 0 0 0 0 0
58 55 51 49 45 42 42 39 35 30 26 23 20 17 14 11 8 5 3 2 1 0 0 0 0 0 0 0 0 0 0 0 0 0 0 0 0 0 0 0 0 0 0
57 55 51 46 40 37 38 35 30 24 21 20 18 14 12 9 6 3 1 1 1 0 0 0 0 0 0 0 0 0 0 0 0 0 0 0 0 0 0 0 0 0 0
53 50 46 41 34 31 31 29 24 19 18 17 15 11 9 6 3 1 0 0 0 0 0 0 1 1 1 0 0 0 0 0 0 0 0 0 0 0 0 0 0 0 0
47 44 41 36 30 27 26 23 19 17 16 16 13 9 6 4 2 0 0 0 0 0 0 0 1 2 1 0 0 0 0 0 0 0 0 0 0 0 0 0 0 0 0
41 39 35 30 26 24 22 19 17 16 16 15 11 6 3 2 0 0 0 0 0 0 0 0 1 1 1 0 0 0 0 0 0 0 0 0 0 0 0 0 0 0 0
35 32 29 26 24 22 18 16 16 16 16 13 8 3 1 0 0 0 0 0 0 0 0 0 0 0 0 0 0 0 0 0 0 0 0 0 0 0 0 0 0 0 0
28 27 25 24 24 21 16 15 16 16 15 12 6 1 0 0 0 0 0 0 0 0 0 0 0 0 0 0 0 0 0 0 0 0 0 0 0 0 0 0 0 0 0

GEFSMW_con_probscp_180.txt.gz
Probability
13 18 23 24 26 26 25 22 17 11 8 8 7 5 4 3 1 0 0 0 0 0 0 0 0 0 0 1 2 2 3 3 3 3 2 1 0 0 0 1 2 2 2
15 21 26 27 28 29 29 26 20 12 9 8 7 5 4 4 3 2 1 0 0 0 0 0 0 0 0 0 1 1 2 2 2 2 1 0 0 0 0 0 1 1 1
21 25 29 29 30 31 29 26 20 12 9 8 7 6 6 6 5 4 2 1 1 1 1 0 0 0 0 0 0 0 1 1 1 1 0 0 0 0 0 0 0 0 0
26 28 30 29 28 27 25 22 17 11 8 7 6 6 6 6 5 4 3 3 2 2 2 1 1 1 0 0 0 0 0 0 0 0 0 0 0 0 0 0 0 0 0
27 28 28 26 24 22 20 19 17 12 8 7 7 7 6 5 4 3 3 3 3 3 3 3 2 2 1 1 1 0 0 0 0 0 0 0 0 0 0 0 0 0 0
26 26 25 26 25 21 18 18 16 12 8 8 8 8 6 4 3 3 3 3 3 3 3 3 3 3 3 2 2 1 0 0 0 0 0 0 0 0 0 0 0 0 0
22 22 24 28 28 24 19 16 12 9 8 8 8 8 6 4 3 3 3 3 3 3 3 3 3 3 3 3 3 1 0 0 0 0 0 0 0 0 0 0 0 0 0
17 19 22 26 26 24 20 15 10 7 6 6 6 7 6 5 4 3 3 3 3 3 3 3 3 3 3 3 2 1 0 0 0 0 0 0 0 0 0 0 0 0 0
15 17 20 21 21 20 18 15 12 9 7 5 5 5 6 6 5 4 4 4 4 4 3 3 2 1 2 2 2 1 0 0 0 0 0 0 0 0 0 0 0 0 0
17 18 19 18 16 15 14 13 12 10 8 6 5 5 6 6 6 6 6 6 5 5 4 2 1 1 2 3 2 1 1 0 0 0 0 0 0 0 0 0 0 0 0
20 20 18 17 15 13 11 10 11 10 8 8 7 6 7 7 6 6 6 6 6 5 4 2 2 2 3 3 3 3 2 1 0 0 0 0 0 0 0 0 0 0 0
19 19 18 16 15 15 13 12 11 10 9 10 10 9 9 8 7 7 7 6 5 4 3 3 3 3 3 3 3 3 2 1 0 0 0 0 0 0 0 0 0 0 0
15 16 17 16 18 21 19 16 14 14 14 15 14 13 11 9 9 9 8 6 4 4 4 4 3 2 3 3 3 2 1 0 0 0 0 0 0 0 0 0 0 0 0
12 14 16 19 22 24 21 18 18 19 20 18 16 14 12 10 10 10 9 7 5 5 5 5 3 2 3 3 3 2 1 1 0 0 0 0 0 0 0 0 0 0 0
14 15 18 22 25 24 19 17 19 22 22 20 17 13 11 10 9 9 8 7 6 6 6 5 3 2 2 2 2 2 2 1 0 0 0 0 0 0 0 0 0 0 0
19 19 23 28 30 26 19 17 19 23 23 21 17 13 10 9 8 7 6 5 6 6 5 4 3 1 1 1 1 2 2 1 0 0 0 0 0 0 0 0 0 0 0
23 24 29 34 34 29 22 20 22 24 24 21 17 14 11 10 8 6 4 4 5 5 3 2 2 1 0 0 0 1 1 0 0 0 0 0 0 0 0 0 0 0 0
26 27 31 36 34 28 24 24 27 27 24 21 18 17 15 13 11 7 5 4 4 3 1 1 1 0 0 0 0 0 0 0 0 0 0 0 0 0 0 0 0 0 0
30 30 32 35 32 27 26 27 28 26 24 21 19 18 17 15 12 7 4 2 1 1 0 0 0 0 0 0 0 0 0 0 0 0 0 0 0 0 0 0 0 0 0
38 36 35 34 31 28 28 28 26 23 20 18 17 16 14 13 10 6 3 1 0 0 0 0 0 0 0 0 0 0 0 0 0 0 0 0 0 0 0 0 0 0 0
42 39 36 33 29 28 28 26 22 18 15 13 13 12 10 9 7 5 2 1 0 0 0 0 0 0 0 0 0 0 0 0 0 0 0 0 0 0 0 0 0 0 0
39 37 33 28 25 25 26 25 18 13 12 11 11 10 8 7 6 4 2 0 0 0 0 0 0 0 0 0 0 0 0 0 0 0 1 0 0 0 0 0 0 0 0
36 35 31 25 21 20 23 23 17 12 12 12 11 9 7 6 5 3 1 0 0 0 0 0 0 0 0 0 0 0 0 0 0 0 0 0 0 0 0 0 0 0 0
31 31 29 25 20 18 21 21 17 14 13 12 11 9 7 6 4 2 1 0 0 0 0 0 0 0 0 0 0 0 0 0 0 0 0 0 0 0 0 0 0 0 0
26 26 26 24 21 20 21 21 18 15 13 11 10 9 7 5 3 1 0 0 0 0 0 0 0 0 0 0 0 0 0 0 0 0 0 0 0 0 0 0 0 0 0
23 22 22 22 20 20 22 21 19 16 14 11 10 9 7 4 2 0 0 0 0 0 0 0 0 0 0 0 0 0 0 0 0 0 0 0 0 0 0 0 0 0 0

GEFSMW_con_probscp_186.txt.gz
Probability
13 15 16 16 19 25 29 30 28 26 24 20 15 11 7 5 3 1 0 1 1 1 1 2 3 3 1 0 0 0 0 0 0 0 0 0 0 0 0 0 0 0 0
18 19 20 21 25 30 31 29 26 24 23 20 16 11 8 6 5 3 2 2 1 1 1 1 2 3 2 1 1 0 0 0 0 0 1 1 0 0 0 0 0 0 0
23 24 25 28 32 35 33 30 25 22 20 18 16 13 9 8 7 5 3 3 3 2 1 1 1 2 2 2 1 1 1 1 1 1 2 2 2 1 1 0 0 0 0
22 24 27 30 33 32 31 30 27 24 19 16 15 13 9 6 4 3 2 3 3 3 1 0 0 1 1 1 1 2 3 4 3 3 3 3 3 2 1 0 0 0 0
19 21 24 27 27 25 25 27 29 26 20 15 13 12 9 5 3 1 2 3 3 3 1 0 1 2 3 2 2 4 5 6 5 5 5 4 3 2 1 0 0 0 1
20 20 22 24 23 19 19 21 24 24 20 15 12 12 11 9 5 3 3 3 3 2 1 0 2 5 5 3 3 4 6 6 6 6 6 5 4 3 1 0 0 1 1
24 25 24 24 22 18 17 19 21 22 21 18 15 13 12 10 7 3 3 3 3 3 2 2 4 6 6 4 3 4 5 6 6 6 6 6 5 4 3 2 2 1 1
29 30 27 23 21 19 18 20 22 23 22 20 16 13 11 8 5 3 2 3 4 4 4 5 6 6 6 4 3 3 4 4 5 5 6 7 6 5 5 5 4 2 1
29 29 26 21 20 20 20 21 23 23 23 20 15 12 10 8 5 5 6 6 6 6 6 6 6 6 6 5 4 3 3 3 4 4 6 7 6 5 5 6 7 5 2
27 26 23 20 20 22 23 22 23 23 22 18 13 11 11 10 8 9 10 10 9 7 6 6 6 6 6 6 5 4 3 3 3 4 5 6 5 5 5 8 9 8 6
26 25 22 21 22 23 24 25 25 23 20 16 13 12 13 13 12 11 11 11 10 8 6 6 6 6 7 7 7 6 5 4 4 5 6 7 6 6 8 10 11 11 10
27 25 22 22 23 23 24 26 27 24 20 18 18 18 18 18 16 14 13 12 12 10 7 7 8 9 9 10 10 9 7 5 5 7 7 8 8 8 9 10 10 9 8
30 28 25 24 24 24 26 29 29 26 23 22 24 25 25 23 21 18 16 14 12 11 9 8 9 11 12 12 12 10 9 7 6 7 7 7 7 7 8 7 5 4 3
35 33 29 26 27 28 29 30 32 31 29 27 29 30 29 28 25 20 17 15 13 11 10 8 8 8 9 10 10 10 9 7 6 6 6 6 5 5 5 3 1 0 0
39 38 34 31 32 34 33 32 34 36 35 33 32 32 32 30 26 21 19 17 15 13 11 8 6 6 6 5 5 6 6 6 6 6 6 5 3 2 2 1 0 0 0
46 44 40 37 38 39 37 36 38 40 41 39 35 32 31 28 24 21 20 19 17 14 12 9 8 7 4 2 2 2 3 5 5 4 3 2 1 0 0 0 0 0 0
54 51 46 43 42 41 40 41 42 43 43 39 33 29 26 23 20 20 19 18 16 14 11 11 10 8 4 1 0 0 1 3 3 1 1 1 0 0 0 0 0 0 0
59 56 51 48 48 45 43 43 43 44 41 35 29 26 23 19 18 18 17 15 14 13 12 10 9 6 3 1 0 0 0 1 1 0 0 0 0 0 0 0 0 0 1
61 59 55 53 53 49 45 43 43 42 39 32 27 25 21 19 18 17 16 15 15 14 11 8 7 4 1 0 0 0 0 0 0 0 0 0 0 0 0 0 0 1 2
59 58 57 57 57 51 44 41 40 39 36 31 27 24 21 20 20 18 16 15 15 13 10 7 5 3 1 0 0 0 0 0 1 1 1 1 0 0 0 0 1 2 3
57 58 58 59 58 51 44 40 38 36 34 31 26 23 22 21 20 19 17 15 13 11 9 6 4 2 1 0 0 0 0 0 1 2 2 1 0 0 0 0 1 2 2
58 60 61 59 55 50 47 45 39 34 32 28 24 22 22 20 19 17 16 13 11 9 7 5 3 1 0 0 0 0 0 0 1 1 1 1 0 0 0 0 0 1 1
61 62 62 57 51 47 48 47 40 33 28 24 21 21 20 19 18 16 15 12 10 8 6 4 2 1 0 0 0 0 0 0 0 0 0 0 0 0 0 0 0 0 0
60 61 59 54 48 43 42 42 39 32 26 22 20 20 19 18 16 15 13 11 9 7 6 4 2 1 0 0 0 0 0 0 0 0 0 0 0 0 0 0 0 0 0
54 55 54 49 43 38 35 35 34 30 25 22 21 20 19 17 14 12 10 8 7 6 5 4 2 1 0 0 0 0 0 0 0 0 0 0 0 0 0 0 0 0 0
49 50 49 45 39 35 32 31 30 28 25 23 22 21 19 16 12 10 7 5 4 4 4 3 1 0 0 0 0 0 0 0 0 0 0 0 0 0 0 0 0 0 0

GEFSMW_con_probscp_192.txt.gz
Probability
50 51 49 52 58 59 53 48 41 35 30 26 21 17 13 10 9 10 11 9 6 5 3 3 4 3 1 1 1 2 3 3 3 3 2 1 0 1 1 1 2 2 1
58 58 57 56 59 62 59 53 45 38 32 28 24 20 16 13 12 14 14 11 8 6 4 5 6 5 3 2 2 3 3 2 2 2 2 1 0 0 0 1 1 2 1
64 64 63 60 60 63 64 59 51 42 35 30 25 21 18 16 16 18 18 15 11 9 7 7 10 9 5 2 2 3 4 2 1 2 1 1 1 0 0 0 2 2 1
63 64 64 61 58 59 63 64 58 47 37 31 26 21 18 16 17 18 18 16 13 11 11 11 13 12 7 4 2 2 4 3 3 3 3 2 2 1 1 0 1 1 1
56 60 62 59 55 54 59 64 63 53 42 34 28 23 17 14 16 17 17 15 13 13 14 13 13 13 11 8 5 3 3 3 4 4 4 3 3 3 2 1 1 0 0
48 53 57 57 54 52 54 58 62 57 48 39 33 26 19 14 15 16 17 15 14 15 15 13 12 12 13 12 10 7 5 4 4 3 3 3 4 4 3 2 1 1 0
43 48 53 56 54 51 51 54 59 58 51 43 37 32 26 19 18 19 18 16 15 15 15 14 12 11 12 12 12 11 8 5 4 3 2 3 5 5 4 2 1 1 1
41 44 49 53 52 48 47 53 58 58 52 47 41 36 31 25 22 24 22 19 15 13 15 15 13 11 11 12 12 11 9 6 4 3 3 4 6 6 6 4 3 2 1
38 39 42 45 47 46 47 52 59 59 53 48 43 36 32 28 26 28 27 23 16 13 15 15 14 12 12 12 11 10 9 7 6 6 6 6 8 7 7 7 7 5 3
33 34 36 38 42 47 49 52 58 59 52 46 41 36 34 31 30 31 30 27 20 16 16 16 15 13 13 13 14 13 11 9 8 8 8 9 9 8 7 8 8 7 6
30 32 35 37 41 46 49 54 59 59 53 47 44 41 38 36 34 32 31 28 23 20 19 18 16 13 13 15 17 15 13 10 9 8 9 9 8 7 7 7 6 5 5
31 34 38 41 43 46 50 54 58 58 54 50 49 46 41 37 35 33 30 27 24 21 18 18 17 15 14 16 16 14 12 11 9 9 8 7 7 6 6 6 5 4 3
39 42 45 47 47 49 52 54 55 56 53 51 51 48 43 39 36 34 32 27 23 19 17 18 19 19 16 14 13 11 10 10 9 8 6 6 6 6 5 4 4 3 2
51 53 55 53 53 53 54 54 54 56 54 52 52 50 46 42 38 36 34 29 24 20 19 20 20 18 14 11 9 9 10 9 8 6 4 4 4 4 3 3 3 3 3
58 62 62 60 57 56 56 56 57 59 57 54 53 52 48 43 37 34 32 30 26 22 21 21 19 14 9 6 5 7 9 9 7 6 4 3 3 2 1 1 1 2 2
65 67 68 66 63 60 59 59 60 60 58 55 52 51 47 40 33 30 29 27 26 24 22 20 16 11 5 2 2 3 6 6 6 5 5 4 3 1 0 0 0 1 1
72 73 73 71 68 64 62 59 57 57 55 52 49 48 45 36 28 25 24 23 22 21 19 17 14 9 4 2 0 1 2 3 4 4 4 3 2 1 0 0 0 0 0
73 74 73 71 69 67 63 57 54 53 51 48 46 45 41 34 26 22 21 20 19 18 17 15 12 8 4 1 0 0 1 3 4 4 2 1 1 0 0 0 0 0 0
72 71 69 68 67 67 64 58 54 52 50 47 46 44 39 31 26 23 21 20 19 18 17 15 12 9 5 1 0 1 2 4 5 3 1 0 0 0 0 0 0 0 0
72 70 67 68 69 68 65 60 57 55 52 49 47 43 37 30 27 25 22 20 20 19 17 15 12 10 6 2 0 1 2 4 4 2 0 0 0 0 0 0 0 0 0
69 68 68 69 69 68 66 62 60 58 54 50 47 42 35 28 25 24 21 19 19 19 16 13 11 10 7 3 0 1 2 3 2 1 0 0 0 0 0 0 0 0 0
67 68 69 68 67 67 66 64 62 60 55 49 43 38 32 26 23 23 21 19 19 19 16 12 10 10 8 3 0 0 1 1 1 0 0 0 0 0 0 0 0 0 0
68 68 67 66 65 65 65 64 63 60 53 44 36 30 26 23 22 22 21 20 19 18 15 12 11 11 9 5 1 0 0 0 0 0 0 0 0 0 0 0 0 0 0
69 67 64 63 62 62 61 61 60 55 48 38 30 24 22 21 21 21 21 20 19 17 16 14 12 12 11 6 2 0 0 0 0 0 0 0 0 0 0 0 0 0 0
66 63 60 58 57 56 54 54 53 49 41 33 26 22 21 22 22 20 18 17 16 14 13 12 12 11 10 6 2 0 0 0 0 0 0 0 0 0 0 0 0 0 0
63 60 56 53 52 51 49 49 48 44 38 30 24 22 22 23 23 20 16 12 11 10 9 9 9 8 6 3 1 0 0 0 0 0 0 0 0 0 0 0 0 0 0

GEFSMW_con_probscp_198.txt.gz
Probability
36 39 43 44 41 34 28 23 20 17 16 14 12 10 8 8 8 6 4 3 3 3 3 1 0 0 0 0 0 0 0 1 1 1 0 0 0 0 0 0 0 0 0
37 41 45 46 43 39 33 28 25 21 19 17 14 11 10 10 9 8 5 3 3 3 3 3 1 1 1 0 0 0 0 1 2 2 1 0 0 0 0 0 0 0 0
35 40 45 47 47 43 38 34 29 25 23 20 16 13 11 11 10 9 6 4 3 4 4 5 3 2 1 1 1 0 1 1 2 2 1 0 0 0 0 0 0 0 0
32 36 43 47 47 43 39 34 29 26 23 21 18 14 12 11 10 8 6 4 4 5 5 5 4 3 2 3 3 2 2 2 2 2 1 1 0 0 0 0 0 0 0
31 34 40 44 44 41 38 33 29 25 22 19 17 14 12 9 9 8 7 5 5 5 5 5 5 5 5 6 6 5 5 5 4 3 2 2 1 0 0 0 0 0 0
33 34 36 39 41 40 38 35 32 27 23 19 16 14 12 9 9 9 8 6 5 5 6 6 7 8 8 8 7 7 7 6 4 3 3 3 2 1 0 0 0 0 0
34 33 34 36 38 41 41 39 35 30 25 22 18 16 14 12 11 11 9 7 5 5 7 7 8 9 9 8 8 8 7 5 4 3 3 2 2 2 1 0 0 0 0
31 29 31 33 36 41 42 39 36 32 28 27 23 19 17 15 13 11 9 8 6 7 8 8 8 9 9 8 8 8 7 5 2 2 1 1 1 2 2 1 1 1 0
27 26 25 27 33 38 39 37 35 32 31 30 27 23 20 18 15 13 11 9 8 8 9 9 9 9 8 7 7 7 6 4 2 1 1 1 1 2 3 3 3 3 2
25 24 22 22 27 32 33 34 35 34 32 31 28 24 22 20 19 17 15 13 11 10 10 10 10 9 6 5 5 6 6 5 3 2 2 2 2 2 2 3 4 4 3
24 22 20 22 26 29 29 30 33 35 35 33 29 27 25 23 21 19 18 15 13 12 13 12 10 7 6 5 6 6 6 5 4 4 3 3 3 2 2 3 3 3 3
24 22 23 26 28 28 28 29 33 37 37 35 32 31 30 28 25 22 20 17 14 13 13 11 9 8 7 8 8 8 7 5 4 5 5 4 3 2 3 3 3 3 2
29 28 28 29 30 29 28 30 35 39 39 37 36 35 34 32 28 25 22 19 15 13 13 11 10 9 9 9 10 9 7 5 4 5 5 4 3 3 3 3 3 2 1
36 34 33 33 32 31 30 32 37 41 41 41 40 37 34 32 29 27 24 19 15 13 13 12 10 10 9 9 9 8 7 5 4 4 3 3 2 2 2 2 1 1 0
41 38 37 38 38 36 35 35 38 40 42 45 43 37 32 28 26 25 22 16 13 13 12 10 9 8 7 6 5 5 5 4 3 3 2 1 1 1 1 1 0 0 0
44 41 39 40 41 41 42 41 40 39 41 46 45 38 29 24 23 20 18 14 12 12 11 9 6 5 4 3 2 2 1 1 1 2 1 0 0 0 0 0 0 0 0
44 43 41 40 39 43 45 45 43 40 41 44 45 38 28 21 19 17 16 15 14 12 10 7 5 4 3 3 1 0 0 0 0 0 0 0 0 0 0 0 0 0 0
45 45 44 41 40 42 44 44 42 40 39 40 40 34 25 19 17 16 16 15 13 11 8 6 5 4 3 3 2 0 0 0 0 0 0 0 0 0 0 0 0 0 0
50 48 47 46 45 43 43 42 40 38 36 34 33 29 23 19 17 17 16 15 12 10 8 6 6 4 3 3 1 0 0 0 0 0 0 0 0 0 0 0 0 0 0
55 53 52 51 49 45 43 41 38 34 31 29 26 24 21 18 18 17 16 14 13 10 8 7 6 5 4 3 1 0 0 0 0 0 0 0 0 0 0 0 0 0 0
59 58 56 54 50 46 43 40 34 29 26 24 22 21 19 17 16 16 14 14 13 11 9 8 7 6 5 3 1 0 0 0 0 0 0 0 0 0 0 0 0 0 0
59 57 55 52 48 45 42 37 30 25 23 23 21 18 16 15 14 13 13 13 14 13 11 10 8 7 6 4 1 0 0 0 0 0 0 0 0 0 0 0 0 0 0
55 52 48 46 44 42 39 34 29 25 24 23 19 15 12 11 11 11 11 13 14 14 12 10 9 7 6 5 2 0 0 0 0 0 0 0 0 0 0 0 0 0 0
50 47 44 41 39 36 33 30 26 25 24 21 16 11 9 9 10 9 10 11 13 14 13 12 10 9 7 4 1 0 0 0 0 0 0 0 0 0 0 0 0 0 0
44 43 41 38 35 31 26 22 22 21 21 18 13 9 9 9 8 8 8 9 11 12 13 12 11 9 6 4 1 0 0 0 0 0 0 0 0 0 0 0 0 0 0
40 39 37 35 32 28 21 17 18 18 18 16 11 8 8 8 7 8 8 7 8 9 10 10 10 8 6 3 1 0 0 0 0 0 0 0 0 0 0 0 0 0 0

GEFSMW_con_probscp_204.txt.gz
Probability
13 13 12 10 6 4 3 4 6 6 6 6 5 5 4 2 1 0 0 0 0 0 0 0 0 0 0 0 0 0 0 0 0 0 0 0 0 0 0 0 0 0 0
12 12 12 9 6 4 5 6 7 7 6 6 5 5 3 1 0 0 0 0 0 0 0 0 0 0 0 0 0 0 0 0 0 0 0 0 0 0 0 0 0 0 0
10 11 11 10 7 6 8 9 7 6 5 6 6 5 3 2 0 0 0 0 0 1 1 0 0 0 0 1 1 1 1 0 0 0 0 0 0 0 0 0 0 0 0
8 10 13 12 10 10 10 10 7 4 3 5 5 4 4 3 1 0 0 0 0 1 1 0 0 0 1 3 3 2 1 1 1 0 0 0 0 0 0 0 0 0 0
7 10 14 13 11 11 12 10 7 3 2 3 4 3 3 3 2 1 0 0 0 1 1 0 1 1 2 5 5 4 3 3 2 1 0 0 0 0 0 0 0 0 0
6 9 11 11 9 10 11 10 7 4 3 3 4 4 4 4 3 2 1 0 0 0 0 1 2 4 5 6 6 6 5 4 3 1 0 0 0 0 0 0 0 0 0
5 6 8 7 6 8 9 10 8 5 3 4 4 5 5 5 4 4 2 1 0 1 1 2 4 5 6 6 6 6 5 4 3 2 1 0 0 0 0 0 0 0 0
4 4 4 4 5 8 10 11 10 7 4 3 4 5 5 5 6 5 4 2 2 2 2 3 4 5 6 7 7 6 5 4 4 4 2 1 0 0 0 0 0 1 1
5 4 2 2 4 7 10 12 12 9 6 5 5 5 6 7 7 7 6 4 4 4 5 5 6 6 7 7 7 6 5 5 5 5 4 1 0 0 0 1 1 2 3
5 4 3 3 4 6 9 11 11 10 8 8 7 6 7 8 10 10 9 7 7 7 8 8 8 8 8 8 7 6 5 5 6 6 5 3 1 0 1 3 3 3 4
5 4 4 4 5 8 10 11 10 10 11 11 10 10 10 12 13 13 13 12 11 11 11 10 10 9 9 7 7 6 5 6 7 6 5 3 1 1 2 3 3 3 4
4 4 6 7 8 10 11 12 11 11 12 12 12 13 15 15 14 15 16 16 15 14 13 12 10 9 8 8 7 7 7 7 7 5 4 3 3 2 3 3 3 3 3
3 4 7 9 9 10 11 12 12 12 13 13 13 15 17 16 14 15 17 18 17 15 14 12 11 9 8 9 9 8 7 7 7 6 4 3 3 3 3 3 3 3 2
5 5 6 8 9 9 10 11 11 13 14 15 17 19 19 17 16 15 16 17 15 13 12 11 10 9 8 9 8 7 7 6 6 6 5 4 3 3 2 2 2 1 1
11 9 7 8 9 9 10 11 12 13 15 17 19 21 19 18 16 14 14 14 13 11 10 10 10 9 8 7 7 7 6 6 6 6 4 3 2 1 1 1 1 0 0
19 15 11 11 12 13 14 15 15 15 16 17 18 18 17 16 14 13 12 12 12 10 9 9 9 8 7 6 6 6 6 6 5 5 3 2 1 0 0 0 0 0 0
24 21 17 16 17 18 18 19 20 20 19 18 17 16 15 13 12 12 12 12 12 10 9 9 8 7 6 4 4 4 4 4 3 2 2 1 0 0 0 0 0 0 0
28 26 23 22 23 23 22 23 25 26 24 21 19 16 13 10 10 11 12 12 12 11 9 8 7 6 5 4 3 3 3 3 1 0 0 0 0 0 0 0 0 0 0
34 32 29 27 27 27 27 27 29 28 26 23 20 17 14 10 9 11 13 12 13 12 10 8 6 6 5 4 3 2 2 2 1 0 0 0 0 0 0 0 0 0 0
38 37 35 32 30 29 30 30 29 27 24 21 17 16 14 11 10 10 11 12 13 12 11 8 7 7 6 4 2 1 1 1 0 0 0 0 0 0 0 0 0 0 0
38 39 39 36 30 28 29 28 26 21 18 16 14 13 12 11 9 7 8 9 11 11 10 8 8 7 6 3 1 0 0 0 0 0 0 0 0 0 0 0 0 0 0
40 40 40 36 29 26 26 25 22 17 15 15 13 10 9 7 5 5 4 6 8 8 8 7 6 6 5 3 1 0 0 0 0 0 0 0 0 0 0 0 0 0 0
42 40 38 34 27 23 23 23 21 16 14 13 11 8 6 5 3 2 3 3 4 5 5 4 4 4 5 3 1 1 1 0 0 0 0 0 0 0 0 0 0 0 0
39 37 35 32 25 21 20 20 18 14 11 9 7 6 5 5 3 2 2 2 2 2 3 3 4 4 4 3 3 2 2 1 1 1 0 0 0 0 0 0 0 0 0
35 34 33 30 25 20 18 16 13 12 9 6 4 3 4 4 3 3 2 2 2 2 2 3 4 4 3 3 3 3 3 3 2 1 0 0 0 0 0 0 0 0 0
32 32 31 27 23 19 17 14 11 11 9 6 3 3 3 3 3 3 3 2 1 1 1 2 3 2 2 2 2 2 3 3 3 1 0 0 0 0 0 0 0 0 0

GEFSMW_con_probscp_210.txt.gz
Probability
9 7 7 6 5 5 8 10 11 12 12 11 10 7 4 2 1 0 0 0 0 0 0 1 2 3 2 1 2 3 3 3 4 3 2 1 0 0 0 0 0 0 0
10 9 8 7 7 7 9 12 14 13 12 11 10 8 5 4 3 1 1 1 1 1 2 3 4 5 4 3 3 3 3 3 4 4 2 1 1 1 0 0 0 0 0
12 11 9 8 7 7 10 14 17 16 13 11 10 9 7 7 7 5 4 4 4 4 5 6 7 6 5 4 4 3 3 3 3 3 2 1 1 1 0 0 0 0 0
11 11 10 7 6 6 8 13 18 17 13 11 10 9 8 9 10 8 7 7 6 5 5 7 7 6 6 6 5 4 4 4 3 3 3 3 2 2 1 0 0 0 0
8 9 9 7 5 5 8 12 15 16 13 11 10 9 8 8 8 9 9 7 5 4 5 7 8 8 7 6 6 6 6 6 5 4 4 4 5 4 3 2 0 0 0
6 7 8 8 6 6 8 10 13 15 14 11 10 9 8 8 8 9 8 6 4 4 5 7 9 9 8 7 7 7 8 8 7 6 6 7 7 6 5 4 2 1 0
7 7 8 8 7 8 8 9 12 16 16 12 10 9 9 8 9 8 7 5 4 5 5 6 8 10 10 9 8 9 10 9 8 8 8 9 9 9 8 6 4 2 1
9 9 8 7 7 8 8 9 13 17 18 16 14 13 11 9 8 7 6 4 4 5 6 6 7 10 11 12 11 11 11 11 9 8 8 9 10 11 9 7 6 4 3
11 12 10 8 7 7 8 11 15 18 19 19 18 18 16 11 8 7 6 6 6 7 7 8 9 11 12 13 12 11 11 11 10 8 8 9 10 11 10 9 8 7 6
16 16 14 11 9 10 11 14 17 17 18 19 20 22 20 15 12 10 10 11 11 12 11 11 12 12 12 12 11 10 10 11 11 10 9 10 11 10 10 10 10 10 8
17 19 18 15 13 14 17 19 18 16 16 17 20 21 21 19 16 15 15 15 15 15 15 14 13 12 12 12 11 11 11 12 13 12 10 9 10 10 10 10 11 11 10
18 21 22 21 18 18 21 22 19 15 14 16 19 21 21 21 21 20 19 18 18 17 17 16 14 12 11 11 11 12 13 13 13 12 10 8 8 9 10 11 12 11 10
25 25 27 27 24 23 23 24 22 19 17 17 20 21 23 24 23 22 21 20 19 17 16 15 14 11 10 10 11 12 13 13 12 10 9 7 7 8 10 12 12 11 9
34 32 31 31 29 27 27 28 28 26 23 21 21 22 24 24 22 19 19 19 18 15 13 12 12 11 10 10 10 11 12 12 11 10 8 7 6 8 9 10 10 10 9
41 39 37 37 36 35 35 35 34 32 30 27 24 23 23 23 20 17 17 18 17 15 13 11 11 11 10 9 8 9 10 10 10 9 9 7 6 6 6 6 6 8 9
48 46 44 43 44 45 43 41 38 35 34 32 28 25 24 23 21 19 18 19 19 17 15 13 11 11 9 7 6 6 8 9 10 10 9 8 6 4 3 2 2 4 5
49 49 49 49 49 48 46 43 39 36 35 33 31 28 26 25 24 22 22 22 23 22 19 15 12 10 9 7 5 5 7 9 10 10 9 8 5 3 2 1 1 2 2
46 49 51 51 50 47 45 44 41 39 37 34 31 30 28 27 26 25 24 24 24 24 21 17 13 11 9 6 4 4 6 9 9 9 8 7 5 3 2 2 2 2 2
46 50 53 54 53 51 48 46 45 44 42 37 32 29 28 27 26 26 25 24 23 22 19 16 13 10 7 4 2 3 5 7 7 7 6 6 4 2 1 2 3 4 4
49 52 56 57 57 55 52 51 50 49 45 40 34 29 26 25 26 26 26 24 23 21 17 13 11 9 6 3 1 2 5 6 5 4 4 4 3 1 0 2 3 4 3
50 53 58 59 57 56 55 55 54 51 47 42 36 30 27 25 25 26 26 26 25 22 16 10 7 7 6 4 2 2 3 4 3 3 3 3 2 0 0 1 3 3 2
50 53 58 57 53 52 53 55 54 50 47 43 37 31 27 24 23 24 24 24 23 20 14 8 5 5 5 5 3 3 2 2 1 2 3 3 1 0 0 1 1 1 0
51 53 56 54 51 48 49 51 50 49 47 43 37 31 27 25 23 21 19 18 18 14 9 6 4 4 4 4 3 2 2 1 2 2 3 2 1 0 0 0 0 0 0
50 52 54 54 51 47 45 45 45 46 46 42 35 29 25 24 22 17 13 13 12 9 6 4 4 4 4 4 3 2 2 2 2 2 3 3 1 0 0 0 0 0 0
48 50 52 52 48 43 41 40 41 42 42 39 31 24 21 20 18 14 10 8 7 6 4 4 3 4 4 3 3 2 2 2 1 1 3 3 2 1 1 1 1 1 1
45 48 49 48 44 39 37 38 39 39 39 35 27 19 18 18 15 11 8 5 3 3 4 4 3 3 3 3 3 2 1 1 0 1 2 3 3 2 2 2 2 2 1

GEFSMW_con_probscp_216.txt.gz
Probability
29 28 24 22 23 26 28 27 24 22 20 18 18 17 16 16 19 20 17 12 10 11 10 9 8 6 5 5 5 5 5 4 4 3 3 3 3 5 6 6 3 2 3
32 31 27 24 26 31 31 29 28 27 23 19 17 16 15 16 19 20 19 16 14 13 11 10 9 8 8 7 8 7 7 6 5 5 4 3 3 4 6 7 5 3 3
35 32 27 24 28 34 34 31 32 31 26 21 17 15 17 17 18 20 20 20 19 17 14 13 12 11 11 11 10 10 10 8 7 7 6 5 4 5 6 6 5 3 3
34 32 27 23 25 29 31 32 34 31 26 20 17 17 18 19 20 20 21 23 23 20 18 17 15 14 14 14 13 12 13 12 10 10 10 8 7 7 6 5 4 3 3
34 33 31 25 21 22 25 31 35 32 25 20 17 18 19 21 22 22 23 25 25 22 21 20 17 16 16 15 14 14 16 16 14 13 12 11 9 9 7 6 4 3 3
34 34 33 29 23 21 24 32 37 34 27 23 21 21 21 21 22 22 22 23 23 23 23 23 21 17 16 15 14 14 16 18 17 15 13 12 11 10 9 8 7 5 5
34 33 32 31 28 26 28 34 38 35 30 28 28 27 24 23 24 24 21 18 19 22 25 27 24 19 14 14 14 14 15 17 18 15 14 14 13 12 11 10 9 8 8
32 33 33 33 32 31 32 36 39 37 33 32 34 33 29 25 23 23 21 19 19 22 25 27 25 21 15 14 15 15 15 17 17 16 14 14 14 14 12 11 11 10 9
31 32 33 34 33 32 34 36 40 40 36 35 38 38 33 25 20 22 24 24 24 25 24 24 25 22 17 16 16 15 15 16 16 15 14 14 14 15 14 12 12 12 11
30 30 31 32 31 32 33 36 40 42 39 38 39 39 36 28 23 24 27 29 30 29 26 24 24 22 20 19 17 16 15 14 13 13 13 13 14 16 15 14 14 14 14
30 31 30 28 28 30 33 35 39 40 39 38 39 40 39 35 31 29 31 33 34 33 29 25 24 23 21 19 17 16 15 13 13 13 13 13 14 16 17 16 15 15 14
32 33 32 29 27 30 34 36 38 39 38 40 42 44 43 41 38 36 35 34 34 33 30 26 23 23 21 19 17 17 16 14 12 12 12 12 13 16 16 15 14 14 13
31 35 38 36 34 36 38 39 40 40 40 44 47 49 47 44 41 39 36 32 30 30 29 26 24 24 24 21 18 18 17 15 13 12 11 11 13 14 14 13 14 13 13
34 39 44 46 47 47 48 45 43 43 44 48 51 52 50 46 42 40 35 31 29 29 28 26 24 25 24 20 16 16 16 15 14 12 11 10 11 11 10 10 11 12 12
41 47 53 56 57 57 55 51 48 48 50 52 52 52 51 47 41 37 34 31 29 29 29 29 26 24 20 16 14 13 14 14 13 11 10 9 8 8 7 7 8 9 9
48 55 63 66 65 62 59 56 54 54 55 55 54 51 49 45 38 33 31 30 30 30 31 31 29 25 18 12 10 11 12 12 10 8 7 6 6 6 6 5 5 5 5
54 62 71 74 71 66 63 62 60 59 59 59 56 52 48 44 38 33 30 29 30 30 31 32 31 25 17 9 7 8 10 10 8 7 5 5 5 5 5 5 4 4 4
61 68 74 76 74 70 67 65 61 60 60 61 59 53 48 46 41 36 32 31 31 30 29 30 29 24 15 7 4 6 8 8 7 6 5 5 5 4 3 3 3 4 4
67 70 73 74 74 73 70 66 62 59 59 61 60 55 49 47 44 39 36 35 34 30 27 27 27 22 14 6 3 3 4 6 6 6 6 7 6 3 1 1 3 3 4
66 67 70 72 74 74 71 67 64 61 60 60 59 56 52 50 47 43 40 39 36 30 25 24 25 20 13 5 1 1 3 4 5 7 8 8 6 3 0 1 3 4 4
62 64 69 73 76 76 72 68 65 64 62 60 58 56 52 50 48 45 43 40 36 31 26 24 22 19 12 5 1 1 3 4 5 8 9 9 5 2 0 1 3 4 3
62 65 69 73 76 76 74 70 68 68 65 61 58 55 50 46 46 45 42 39 34 31 28 25 23 19 13 6 2 1 1 3 6 9 9 7 4 1 0 1 2 3 2
62 64 67 70 72 71 70 70 71 70 65 61 58 54 49 46 45 45 41 36 32 31 29 26 24 21 16 11 5 2 1 1 4 6 6 4 2 0 0 1 1 1 2
59 60 64 67 67 64 63 66 69 68 63 58 56 52 46 43 44 43 37 31 29 28 26 24 22 22 18 13 9 5 2 1 2 2 2 2 1 0 1 2 2 2 3
53 57 62 66 65 62 62 63 65 64 59 55 51 46 39 37 38 36 30 23 19 18 17 17 17 17 14 10 6 5 3 3 1 1 1 1 0 0 2 3 4 5 5
51 56 63 65 64 64 63 63 63 62 58 53 47 41 36 34 33 31 24 15 10 9 9 10 12 11 8 5 3 2 3 3 2 2 2 2 0 0 1 4 6 6 6

GEFSMW_con_probscp_222.txt.gz
Probability
7 6 8 12 15 13 9 7 7 5 2 1 2 3 2 1 0 1 4 5 4 3 3 2 1 0 0 1 1 1 1 1 1 1 1 1 1 0 0 0 0 0 0
8 9 11 15 16 14 11 8 7 5 2 0 1 2 2 1 1 1 2 4 4 4 4 3 2 1 1 1 1 1 2 2 2 2 1 1 1 1 1 1 1 0 0
10 11 14 17 18 17 13 10 7 5 4 3 2 2 2 2 2 1 2 4 5 6 6 5 4 3 3 3 3 3 3 3 3 3 3 2 2 2 2 2 2 1 1
9 10 15 19 20 17 14 11 8 7 8 7 5 3 3 3 3 3 4 5 7 7 7 6 6 6 6 6 6 4 3 3 3 3 3 3 3 3 3 3 3 3 2
8 9 14 18 19 19 16 14 11 9 9 8 6 5 4 4 3 4 5 7 8 8 7 6 6 7 8 8 6 4 3 4 4 3 3 3 3 3 3 3 3 3 3
9 9 11 14 17 21 22 18 14 11 9 8 6 6 5 4 4 5 6 7 7 8 6 5 5 6 7 6 4 4 4 5 5 4 4 5 5 5 4 4 4 3 3
10 9 9 10 14 20 23 20 16 13 12 10 8 6 6 6 6 7 7 7 7 8 8 6 5 6 6 4 3 4 5 6 6 6 6 7 8 8 7 6 5 4 3
10 9 7 7 10 16 19 19 16 15 16 14 10 6 6 7 8 8 8 8 9 9 10 8 6 5 5 4 3 5 6 6 6 6 7 8 9 10 10 9 7 5 3
9 8 6 4 7 12 17 19 18 17 17 15 12 9 8 7 8 7 7 8 8 8 8 7 6 4 3 3 5 6 6 6 6 6 6 7 8 8 9 9 7 5 4
8 7 6 4 6 10 16 20 21 20 19 16 15 14 10 7 7 7 5 6 6 7 6 5 4 3 2 3 6 7 7 6 7 7 7 7 6 6 6 6 5 4 4
9 9 8 7 7 10 16 21 23 24 23 20 19 17 13 8 7 7 6 4 5 6 5 4 4 3 3 5 8 8 7 6 7 7 7 6 6 6 6 5 4 4 4
12 12 12 9 9 13 18 23 27 28 26 24 23 21 17 12 10 10 8 6 6 6 5 5 6 7 7 8 10 9 7 6 7 6 5 5 6 6 6 6 6 6 6
19 18 16 12 12 16 22 27 32 32 30 28 26 23 20 16 14 12 11 9 9 8 7 7 9 10 9 9 10 10 7 6 5 4 3 3 5 6 6 6 6 6 6
23 22 19 16 15 19 25 31 35 36 34 33 31 26 23 20 16 13 12 11 11 11 10 11 11 10 9 8 8 8 6 3 2 1 1 1 3 4 4 4 4 4 4
24 24 21 18 18 20 25 31 35 36 35 35 34 31 26 23 20 16 13 11 10 10 12 13 12 11 11 10 8 7 5 2 1 1 1 0 1 2 2 2 1 1 1
32 30 26 22 21 22 25 30 33 34 33 33 35 34 30 28 25 21 17 15 13 12 13 15 15 14 13 11 9 7 5 3 2 2 1 0 0 1 1 1 0 0 0
39 37 33 31 30 28 28 31 33 34 33 33 35 36 34 31 29 25 22 21 20 18 18 18 18 16 12 9 8 6 5 3 3 2 1 0 0 0 0 0 0 0 0
37 38 38 37 37 36 35 35 38 38 37 36 36 38 37 33 30 27 24 25 24 23 21 20 18 15 10 6 4 4 3 3 2 1 0 0 0 0 0 0 0 0 0
34 37 40 41 40 40 41 41 41 42 42 40 37 37 37 35 31 28 25 24 24 23 21 18 16 14 9 4 1 1 2 3 2 1 0 1 1 2 1 1 1 0 0
37 40 43 44 42 43 46 46 45 46 45 42 38 36 34 33 30 28 27 25 23 21 18 15 14 12 8 2 0 0 2 2 2 0 1 2 2 2 2 2 1 1 1
40 43 45 44 43 45 47 47 48 49 46 42 40 38 34 31 28 27 27 25 23 20 17 14 13 12 7 2 0 0 1 2 1 0 1 1 1 1 1 1 1 1 1
43 44 44 43 42 43 43 44 45 44 42 41 40 39 36 32 28 27 27 26 24 20 16 14 12 11 7 3 1 0 1 1 1 1 1 1 0 0 0 0 0 0 1
44 43 42 41 41 40 40 40 39 37 39 42 42 39 35 31 28 26 25 24 23 19 15 12 10 9 6 3 2 1 0 0 1 1 1 0 0 0 0 0 0 0 0
39 39 38 39 38 37 37 37 36 35 37 41 41 37 32 28 25 23 21 20 19 16 12 9 7 6 6 4 3 2 1 1 1 1 1 0 0 0 0 0 0 0 0
31 33 34 34 35 35 33 32 32 32 33 36 35 32 28 26 24 20 15 13 12 11 8 6 5 4 5 4 2 1 1 2 1 0 0 0 0 0 0 0 0 0 0
27 29 31 32 34 34 31 29 28 28 29 32 31 28 25 24 23 18 11 7 7 7 6 4 4 4 4 3 1 0 1 1 1 0 0 0 0 0 0 0 0 0 0

GEFSMW_con_probscp_228.txt.gz
Probability
1 2 3 5 6 7 5 3 1 0 0 0 0 0 0 0 0 0 0 0 0 0 0 0 0 0 0 0 0 0 0 0 0 0 0 0 0 0 0 0 0 1 1
1 2 3 6 7 7 6 3 1 0 0 0 0 0 0 0 0 0 0 0 0 0 0 0 0 0 0 0 0 0 0 1 1 1 1 1 1 1 1 1 1 2 2
1 2 4 6 8 8 6 3 1 0 0 0 0 0 0 0 0 0 0 0 0 0 0 0 0 0 0 0 0 1 1 2 2 2 2 2 2 2 2 2 2 2 1
0 2 4 6 8 8 5 2 0 0 0 0 0 0 0 0 0 0 0 0 0 0 0 0 0 0 0 0 0 1 2 3 3 3 3 3 3 3 3 3 2 1 0
0 1 2 4 6 5 3 1 0 0 0 0 0 0 0 0 0 0 0 0 0 0 0 0 0 0 1 0 0 1 1 2 2 2 2 3 3 3 2 1 1 0 0
0 0 1 2 3 3 3 1 0 0 0 0 0 0 0 0 0 0 0 0 0 0 0 0 0 0 0 0 0 0 0 1 1 1 2 2 3 3 2 0 0 0 0
1 1 0 1 2 3 3 2 1 1 1 1 0 0 0 0 0 0 0 0 1 0 0 0 0 0 0 0 0 1 1 1 1 2 2 3 3 3 2 1 1 1 0
2 2 1 2 3 4 5 4 4 4 4 3 1 1 1 0 0 0 0 0 0 0 0 0 0 0 0 0 0 1 1 2 3 3 3 3 3 3 3 3 4 3 2
2 2 1 1 2 3 5 6 6 6 6 5 4 3 3 1 0 0 0 0 0 0 0 0 1 1 1 1 1 1 2 3 3 3 3 4 4 3 3 4 5 4 3
1 1 0 0 1 3 5 6 7 7 7 7 7 7 6 4 2 1 1 1 0 0 0 0 1 2 2 2 2 2 2 3 3 4 4 5 5 4 4 4 4 4 4
1 1 1 1 2 4 6 7 7 8 9 10 10 11 9 7 6 5 4 3 1 1 1 1 1 2 2 2 2 2 2 3 4 5 6 7 6 5 4 4 4 4 5
3 4 3 2 3 5 8 9 10 10 11 12 14 15 14 12 9 7 5 4 3 3 3 3 3 3 3 3 3 3 3 4 5 5 6 7 7 6 4 3 3 4 4
4 4 3 3 5 6 7 10 12 13 15 16 17 19 19 16 11 8 6 5 5 5 5 6 6 6 6 6 6 6 6 7 7 6 6 6 6 5 3 2 2 2 2
3 3 3 5 6 6 7 9 13 16 19 19 18 19 19 17 14 11 8 6 6 7 8 9 9 9 8 8 9 9 9 9 9 7 6 5 4 3 2 1 1 1 1
4 4 6 8 8 8 8 9 12 17 19 19 18 18 17 16 16 15 11 9 8 10 12 13 13 12 10 9 9 9 9 9 8 7 6 5 4 2 1 0 0 0 0
7 8 9 10 11 11 10 9 10 15 17 18 19 20 19 17 17 16 13 9 9 12 16 16 15 14 12 9 7 7 7 8 8 7 6 6 4 2 0 0 0 0 0
12 12 12 12 11 12 11 10 11 15 18 18 21 24 24 22 20 18 13 10 10 13 15 15 15 14 12 8 5 5 7 9 9 8 8 6 4 1 0 0 0 0 0
17 17 16 14 13 12 13 13 15 18 21 22 23 27 29 27 24 21 16 13 12 13 13 14 14 13 11 7 4 4 7 10 11 10 8 6 3 1 0 0 0 0 0
20 20 20 20 19 18 19 20 21 22 24 26 28 30 32 31 28 24 20 16 13 12 12 12 13 12 10 6 4 4 6 8 9 8 6 3 1 0 0 0 0 0 0
21 22 23 24 25 23 23 25 25 25 25 27 29 31 33 32 28 25 22 17 14 11 10 10 10 10 9 7 5 5 6 7 7 6 5 2 0 0 0 0 0 0 0
20 23 26 27 26 24 24 24 25 24 23 23 25 28 29 27 24 23 22 19 15 12 8 8 9 10 9 8 6 4 6 7 7 5 4 2 1 0 0 0 0 0 0
22 24 27 28 25 23 23 23 23 22 20 20 20 22 22 20 20 21 21 19 16 13 10 9 10 10 8 7 6 3 3 5 5 4 3 2 1 0 0 0 0 0 0
21 22 25 26 24 23 22 20 19 18 17 18 18 18 17 16 17 18 19 18 17 16 13 11 10 9 7 5 4 2 1 2 3 3 3 2 1 0 0 0 0 0 0
16 18 20 22 21 21 19 17 14 13 14 15 17 17 15 14 14 15 17 16 16 15 13 10 9 7 5 4 3 2 1 0 1 2 2 1 0 0 0 0 0 0 0
10 12 13 15 18 18 17 15 13 12 12 13 15 15 14 12 12 13 15 14 12 11 10 8 6 5 4 3 3 2 1 0 0 1 1 0 0 1 1 1 1 0 0
6 7 9 11 15 17 16 15 13 12 11 12 14 14 13 12 12 13 14 12 9 8 7 6 5 4 4 3 2 1 0 0 0 0 0 0 0 1 2 2 2 1 0

GEFSMW_con_probscp_234.txt.gz
Probability
1 0 0 1 2 4 6 6 6 4 2 1 2 2 2 1 2 2 1 0 0 0 0 0 0 0 0 0 0 0 0 0 0 0 0 1 2 3 3 3 2 1 0
2 1 0 1 3 5 6 6 6 4 3 2 3 3 2 1 1 1 0 0 0 0 0 0 0 0 0 0 0 0 0 0 0 0 0 0 1 2 2 3 2 1 0
2 1 0 2 4 5 5 6 7 5 4 3 3 2 2 1 0 0 0 0 0 0 0 1 1 1 1 1 1 1 1 1 0 0 0 0 0 0 1 2 2 1 0
3 1 0 1 3 4 3 5 8 8 5 3 2 1 1 1 0 0 0 0 0 0 1 3 4 3 3 3 3 3 3 3 1 0 0 0 1 1 1 1 1 0 0
4 2 0 0 1 1 1 4 8 9 7 4 2 1 1 0 0 0 0 0 0 0 2 5 6 5 5 5 5 6 5 4 3 2 2 1 2 2 2 1 1 1 1
7 4 1 1 1 1 1 3 6 8 9 7 5 3 2 0 0 0 0 0 0 0 1 3 5 5 5 6 8 8 6 4 5 6 4 3 3 3 4 4 4 3 3
8 5 3 2 2 3 2 3 5 8 10 10 8 6 4 1 0 0 0 0 0 0 1 2 3 3 4 6 8 9 5 3 4 6 5 4 3 4 5 6 6 5 5
8 5 3 2 3 4 3 2 3 6 8 9 10 9 6 2 1 1 1 0 0 1 2 3 3 3 4 6 8 8 5 3 3 5 6 5 5 6 7 7 7 7 7
8 5 2 1 2 2 2 2 3 4 5 7 9 9 6 4 4 4 3 2 2 3 4 5 6 5 6 7 9 8 6 4 4 5 7 8 8 8 10 10 9 9 9
9 5 2 1 1 1 2 3 4 4 4 5 7 7 6 6 7 8 9 8 7 8 9 9 9 8 8 9 10 9 8 6 6 6 8 9 10 10 12 13 12 11 12
9 7 4 3 3 3 4 5 7 8 8 8 9 9 9 11 13 14 14 13 14 14 14 13 11 10 9 9 10 10 9 8 7 7 9 10 11 11 12 12 12 12 12
11 10 10 9 7 7 8 8 11 13 14 14 13 13 14 16 17 17 16 16 17 18 17 15 13 11 9 9 10 10 9 9 9 9 10 11 11 11 11 11 11 11 11
14 16 17 16 14 12 12 13 15 18 20 20 18 17 17 18 19 19 18 18 19 20 20 20 18 14 10 10 11 10 10 11 11 10 10 10 11 11 11 10 10 10 10
16 19 21 21 20 19 19 19 20 22 25 25 23 22 22 22 22 21 20 20 20 22 22 22 21 18 14 13 13 12 12 12 12 11 9 9 10 12 12 11 11 11 11
20 20 23 24 22 21 23 25 26 28 31 31 29 28 28 28 26 23 21 21 21 20 20 21 21 20 17 14 14 15 14 14 14 12 10 10 11 12 11 10 11 12 12
24 24 27 27 23 21 23 26 30 32 34 33 31 30 30 30 29 26 25 25 23 21 19 19 21 21 17 12 11 13 15 16 15 14 12 12 12 11 10 9 8 9 10
30 32 34 30 26 26 27 28 30 33 33 32 30 29 29 31 32 31 30 31 29 26 23 22 22 21 16 9 7 9 13 16 16 15 15 15 14 13 11 9 7 7 7
32 36 37 33 30 32 33 32 33 32 32 31 30 29 29 32 34 34 33 34 34 32 29 25 24 23 17 9 5 5 9 14 15 16 17 18 16 14 13 12 10 8 7
30 31 32 29 28 32 35 36 35 32 31 32 33 32 32 34 37 37 37 37 35 34 31 28 27 26 20 10 4 4 9 13 14 17 18 18 16 13 12 12 11 10 9
29 29 29 27 27 31 35 35 33 29 29 32 34 34 34 34 36 38 40 40 37 34 31 30 28 27 21 9 2 3 9 12 14 17 17 15 13 10 9 10 10 9 8
30 31 32 32 32 35 36 34 30 28 29 31 33 33 32 31 31 35 39 40 37 34 31 28 27 25 18 8 2 3 7 11 14 16 15 12 9 6 4 6 8 7 6
30 33 36 37 37 38 37 35 32 29 28 29 29 28 28 27 27 31 33 33 33 32 29 26 24 20 14 8 3 2 3 6 11 13 12 9 5 2 1 2 4 4 4
31 33 35 37 38 37 36 34 32 30 28 26 26 25 25 24 24 24 24 24 26 27 26 24 21 17 12 9 6 3 2 3 6 8 7 5 3 1 1 0 1 2 3
29 30 33 34 35 34 32 29 27 27 26 24 24 25 24 21 19 17 17 18 21 23 25 24 21 15 11 10 9 7 5 4 4 5 4 3 2 2 2 1 2 3 4
25 27 30 31 30 29 27 24 23 23 22 22 23 23 21 19 16 14 13 14 16 17 19 20 19 14 10 8 7 7 7 7 5 4 4 4 4 4 4 4 5 5 6
22 24 27 28 26 24 22 22 22 21 21 22 22 20 19 19 16 12 11 11 12 11 11 14 15 13 8 5 4 5 6 6 5 4 4 5 5 5 5 6 6 6 6

GEFSMW_con_probscp_240.txt.gz
Probability
6 8 7 8 14 18 17 16 15 10 4 1 4 9 8 4 3 2 2 1 1 1 2 1 0 0 0 0 0 0 0 0 1 0 0 1 2 3 5 5 4 3 1
10 11 9 9 14 19 20 18 16 12 6 2 4 8 7 4 3 5 5 4 3 3 2 1 1 0 0 1 1 0 1 1 2 1 1 0 1 2 4 4 4 4 2
13 13 12 10 12 16 18 17 16 14 9 4 3 5 6 4 4 7 8 8 7 6 3 2 2 1 1 2 3 2 3 3 3 2 1 0 0 1 2 3 4 6 7
12 12 11 10 10 11 13 15 16 15 11 6 2 3 5 4 4 7 9 10 10 8 5 4 4 4 4 4 5 6 6 5 4 2 2 1 1 2 2 3 5 8 10
9 10 11 10 9 8 10 15 16 15 13 9 4 3 3 2 3 7 10 11 10 8 7 7 8 8 7 7 8 10 10 9 6 4 3 4 4 4 5 5 6 7 8
9 12 13 13 9 8 11 16 17 15 14 12 9 6 3 2 4 8 10 9 9 9 10 12 13 12 10 10 12 14 13 12 9 6 6 7 7 7 7 7 6 6 7
9 13 19 20 15 13 16 20 20 18 16 14 12 11 7 4 4 6 7 7 8 12 15 16 16 15 14 15 16 16 15 14 12 10 8 7 6 6 8 9 8 7 7
13 16 22 25 22 19 22 26 26 23 19 16 14 13 10 5 3 4 4 5 8 13 19 20 20 20 17 18 19 18 16 15 14 13 11 9 7 6 9 12 11 8 8
19 20 22 24 23 23 26 30 32 29 24 19 16 14 11 7 6 7 8 9 11 15 21 25 25 23 21 20 21 20 19 18 17 16 14 13 11 10 12 13 13 12 10
25 24 23 24 25 27 27 30 33 33 29 24 19 16 15 13 13 14 16 17 18 20 24 28 28 25 24 23 22 22 21 19 19 17 17 17 16 16 15 15 15 14 13
30 28 26 26 28 28 28 29 32 34 32 27 22 20 21 21 20 20 22 23 24 25 28 30 29 27 27 25 23 21 20 21 20 19 18 18 18 18 18 18 17 15 15
31 30 29 30 30 30 30 31 32 32 31 30 27 26 28 28 27 26 27 26 26 29 31 31 31 29 27 26 23 20 19 21 21 20 20 21 21 21 20 18 17 17 17
30 31 33 35 35 35 35 35 32 31 32 32 31 33 35 36 34 33 32 30 29 31 33 33 33 31 28 26 25 22 21 22 21 20 21 22 25 25 23 20 19 18 19
35 37 39 40 42 44 44 41 35 31 33 34 35 37 40 41 39 36 34 33 33 33 33 33 34 33 31 31 29 25 24 24 24 23 23 24 26 26 23 22 21 20 19
41 42 44 47 49 51 51 47 42 39 38 39 40 40 42 42 39 35 33 32 32 33 33 34 34 34 32 30 29 25 23 25 26 26 24 23 23 20 18 19 20 19 18
43 46 51 55 57 56 53 50 47 47 48 47 46 45 44 42 38 34 31 31 32 32 33 33 34 33 29 24 21 20 21 24 25 25 24 22 18 15 14 14 15 14 13
46 51 56 59 60 56 51 48 47 49 52 52 49 47 46 44 42 38 36 35 36 36 34 33 34 33 28 19 13 15 20 23 24 24 23 20 17 14 13 12 12 11 9
51 53 54 54 56 55 52 49 47 47 50 49 47 47 46 46 46 43 41 40 41 41 39 37 36 34 28 19 11 11 17 22 23 24 22 20 17 15 13 12 11 11 10
51 50 48 47 51 54 55 54 51 49 48 46 46 47 47 48 47 45 43 43 45 46 44 40 38 37 31 21 11 10 15 20 21 22 21 19 17 15 13 12 12 12 12
46 44 43 44 47 51 54 55 55 51 48 47 47 48 49 50 49 47 46 47 48 48 45 40 39 40 35 23 13 12 18 21 20 21 20 18 15 11 10 10 12 12 12
42 41 42 44 45 47 49 52 54 52 48 47 49 50 50 49 48 50 50 49 49 49 45 41 39 40 35 23 12 11 17 21 20 19 19 16 10 6 5 6 8 9 9
41 41 43 47 48 49 51 54 55 53 50 49 51 51 51 47 46 48 47 44 44 43 41 38 35 35 32 21 10 7 9 14 16 17 15 11 6 3 2 2 4 6 7
40 41 43 47 48 50 54 57 56 53 51 51 50 50 49 45 43 42 38 35 35 34 33 32 31 32 30 23 13 6 4 5 9 11 9 6 3 2 1 2 3 5 6
37 38 40 42 44 47 51 53 52 50 48 47 46 44 42 39 36 35 32 30 30 29 28 28 30 30 28 24 17 11 6 4 4 5 5 4 3 2 2 3 4 6 7
32 33 34 36 39 42 44 43 44 46 45 43 40 37 34 31 29 28 27 26 26 24 22 22 25 24 22 19 15 11 8 5 4 3 4 4 4 3 4 5 6 8 9
30 30 30 32 35 38 39 38 40 44 44 40 36 33 30 28 25 25 24 21 20 18 15 15 18 19 16 12 9 8 6 4 4 4 4 4 4 4 4 6 7 8 10

GEFSMW_con_probscp_246.txt.gz
Probability
11 14 16 15 11 8 8 8 7 5 2 0 0 0 0 0 0 0 0 0 0 0 0 0 0 0 0 0 0 0 0 0 0 0 0 0 0 0 0 0 0 0 0
12 15 17 16 13 10 10 9 8 6 3 1 0 0 0 0 0 0 0 0 0 0 0 0 0 0 0 0 0 0 0 0 0 0 0 0 0 0 0 0 0 0 0
11 14 17 17 15 12 10 10 9 7 4 2 1 0 0 0 0 0 0 0 0 0 0 0 0 0 0 0 0 0 0 0 0 0 0 0 0 0 0 0 0 0 0
9 12 15 15 13 10 8 8 8 7 6 5 3 0 0 0 0 0 0 0 0 0 0 0 0 0 0 0 0 0 0 0 0 0 0 0 0 0 0 0 0 0 0
7 9 12 12 10 8 7 6 6 6 7 7 4 1 0 0 0 0 0 0 0 0 1 2 2 1 1 1 1 0 0 0 0 1 0 0 0 0 0 0 0 0 0
4 6 9 10 9 9 9 8 7 6 7 6 4 1 0 0 0 0 0 0 0 0 2 3 4 4 3 2 2 1 1 1 2 2 1 1 1 1 1 1 0 0 0
2 4 6 9 12 14 13 10 7 7 6 6 4 1 0 0 0 0 0 0 0 0 2 5 6 6 4 3 3 4 5 5 5 5 4 3 3 3 2 2 1 1 0
7 6 6 9 15 18 16 12 10 8 7 6 5 3 1 0 0 0 0 0 0 1 4 7 8 7 5 5 6 7 7 7 7 7 6 6 5 4 3 3 3 2 1
12 10 8 9 14 18 18 16 13 11 9 7 6 5 2 1 1 1 1 0 0 1 5 9 9 8 6 7 8 7 6 7 8 7 6 6 5 4 3 3 3 3 3
15 12 9 10 13 17 19 18 16 14 12 10 10 9 6 4 3 3 2 1 1 2 5 8 9 8 7 8 9 7 6 7 8 7 6 6 6 5 4 4 4 4 4
16 12 10 12 15 19 21 21 18 16 15 14 14 14 12 10 7 5 3 3 3 4 5 7 8 8 7 7 8 8 7 7 8 7 7 8 8 7 6 6 6 6 6
17 14 12 13 17 21 24 23 21 19 18 17 17 17 16 14 11 7 6 5 6 6 6 7 9 9 8 7 8 8 8 7 7 6 6 7 8 8 7 6 6 6 6
20 17 15 16 19 23 25 25 24 22 20 18 19 19 18 16 13 11 10 10 10 9 9 11 13 13 11 9 8 8 7 7 7 6 5 6 7 7 6 6 6 6 6
22 21 20 20 21 24 27 29 29 27 24 22 21 21 19 18 16 15 16 16 17 16 16 17 19 17 13 10 8 7 7 7 7 6 5 6 6 6 5 4 4 5 6
27 26 25 24 24 26 29 32 33 32 29 27 25 23 23 22 22 22 22 22 22 22 22 23 23 20 15 12 10 9 9 8 6 5 4 4 5 5 4 3 3 4 6
30 29 28 26 26 27 29 30 31 31 31 28 26 25 25 25 26 27 27 25 24 23 23 24 23 21 17 14 12 12 11 10 8 6 5 5 5 5 4 3 3 4 5
28 28 27 27 26 27 28 28 27 27 28 27 25 25 25 25 26 27 26 24 22 22 22 21 20 19 17 15 12 11 13 13 12 10 8 8 8 7 5 3 4 4 5
29 29 28 26 27 28 29 28 26 25 28 28 27 27 27 25 24 24 22 20 20 22 21 19 18 18 16 14 10 8 12 15 14 13 10 10 10 9 6 5 5 6 6
31 31 30 28 29 31 32 31 29 27 29 31 30 29 28 26 24 22 20 19 19 20 20 19 18 18 16 12 6 4 10 14 15 13 11 10 10 9 7 6 6 6 6
28 28 29 31 32 32 31 32 31 30 31 31 30 29 27 26 25 22 19 18 17 18 19 19 18 16 14 10 3 2 8 13 14 13 12 11 9 7 6 6 6 6 6
28 27 29 32 34 32 29 28 28 29 29 30 30 29 27 25 22 20 19 18 17 18 18 18 17 16 15 10 3 1 5 10 11 11 12 12 9 5 3 3 5 5 4
29 28 28 30 32 31 30 29 28 27 27 28 29 28 27 24 19 17 17 17 17 18 18 18 17 17 16 11 4 1 2 4 6 8 9 8 5 2 1 1 2 2 1
25 25 24 24 25 28 31 31 30 28 28 28 28 27 26 24 20 17 15 15 16 17 17 17 17 17 17 13 6 1 0 1 2 3 4 3 2 1 0 0 0 0 1
22 21 20 20 20 23 26 28 28 28 28 28 27 26 26 25 22 18 15 14 14 14 14 16 17 17 17 15 10 4 1 0 0 1 1 1 0 0 0 0 0 0 1
19 19 18 18 18 18 19 20 21 23 25 25 24 24 24 23 20 17 15 13 12 11 11 11 13 14 15 13 10 6 2 0 0 0 0 0 0 0 0 1 1 1 1
17 17 17 17 17 15 13 14 16 18 21 21 20 20 20 19 18 16 14 11 10 9 8 8 9 11 11 10 6 4 2 1 0 0 0 0 0 0 0 1 2 2 2

GEFSMW_con_probscp_252.txt.gz
Probability
1 1 1 2 1 0 0 0 0 0 0 0 0 0 0 0 0 0 0 0 0 0 0 0 0 0 0 0 0 0 0 0 0 0 0 0 0 0 0 0 0 0 0
2 2 2 1 1 0 0 0 0 0 0 0 0 0 0 0 0 0 0 0 0 0 0 0 0 0 0 0 0 0 0 0 0 0 0 0 0 0 0 0 0 0 0
3 3 2 1 0 0 0 0 0 0 0 0 0 0 0 0 0 0 0 0 0 0 0 0 0 0 0 0 0 0 0 0 0 0 0 0 0 0 0 0 0 0 0
3 3 2 1 0 0 0 0 0 0 0 1 2 1 0 0 0 0 0 0 0 0 0 0 0 0 0 0 0 0 0 0 0 0 0 0 0 0 0 0 0 0 0
3 3 2 1 0 0 0 0 0 0 1 2 3 2 1 0 0 0 0 0 0 0 0 0 0 0 0 0 0 0 0 0 0 0 0 0 0 0 0 0 0 0 0
1 2 2 1 0 0 1 1 0 1 1 3 3 3 1 0 0 0 0 0 0 0 0 0 0 0 0 0 0 0 0 0 1 1 1 1 1 1 1 1 0 0 0
0 1 1 2 2 3 4 4 2 2 3 3 3 3 2 1 1 0 0 0 0 0 0 0 0 0 0 0 0 1 1 1 2 2 2 3 4 4 4 3 2 0 0
0 0 1 2 4 7 8 7 5 4 3 3 3 3 3 3 2 1 0 0 0 0 0 0 0 0 0 0 1 2 2 3 3 4 4 5 6 6 6 5 4 2 1
0 0 1 3 6 9 8 8 7 6 5 4 4 4 3 3 3 1 0 0 0 0 1 1 0 0 0 0 1 1 2 3 4 4 5 6 7 7 7 7 7 6 5
1 1 1 3 6 9 9 8 8 8 7 6 5 5 4 4 3 2 1 1 1 1 3 4 2 0 0 0 0 0 1 3 4 5 5 6 8 8 8 8 9 9 8
3 3 3 4 6 10 11 10 9 8 8 7 7 6 5 4 3 2 2 2 2 3 6 7 4 1 1 0 0 0 1 3 4 5 5 6 7 8 8 9 9 9 9
4 5 5 5 7 11 13 12 11 9 8 8 8 7 6 4 3 2 2 2 3 5 7 8 6 4 3 2 2 2 3 4 5 6 6 7 9 9 9 9 9 9 9
7 6 5 6 8 12 15 14 13 11 10 9 9 9 7 6 5 4 4 4 4 6 8 7 7 7 6 7 7 7 7 8 9 9 9 10 11 11 11 11 11 9 8
9 7 6 5 7 11 14 15 15 14 13 12 11 10 10 9 8 7 6 5 6 8 8 8 9 10 11 12 12 12 11 12 13 13 13 13 13 13 13 12 11 9 7
8 8 6 5 6 9 13 14 15 18 19 16 12 10 11 12 11 9 7 7 8 9 10 10 11 13 14 15 15 14 14 15 15 14 14 13 12 11 11 10 8 7 7
9 10 9 7 8 10 13 14 17 21 22 19 14 11 12 13 13 12 10 9 10 12 12 13 14 15 15 14 13 14 15 16 15 15 14 12 10 8 7 6 5 5 5
15 16 15 13 11 12 14 15 18 21 21 19 17 16 16 16 17 16 14 13 13 13 14 15 16 16 15 12 9 9 13 14 14 15 15 13 10 8 8 6 4 3 2
18 18 18 16 13 13 15 17 20 22 20 18 19 20 21 21 22 20 17 15 14 13 13 15 16 16 14 10 6 5 8 10 11 12 13 13 12 11 11 9 6 4 4
16 15 15 14 13 14 17 19 21 22 21 19 19 20 22 22 23 20 16 14 13 12 12 14 15 15 13 9 4 3 6 8 7 7 8 10 10 10 8 9 9 8 7
12 11 11 13 14 14 17 19 20 21 22 21 20 20 20 20 20 18 14 12 12 12 12 12 12 12 11 8 4 4 7 9 8 6 6 6 7 5 3 6 9 9 9
10 8 8 12 13 13 14 17 18 19 22 22 20 20 19 19 19 17 14 13 12 12 11 11 11 11 11 9 5 4 7 9 10 8 6 6 4 2 1 3 6 7 6
10 8 6 7 8 9 12 14 16 18 20 20 19 18 18 18 19 19 17 15 13 11 11 11 11 11 11 9 6 4 4 7 9 8 7 4 2 0 0 1 2 2 2
11 9 7 6 5 7 10 14 17 18 19 18 16 16 16 17 18 18 17 15 12 11 10 10 11 11 10 10 8 5 3 4 5 6 5 3 1 0 0 0 0 0 0
11 10 9 8 7 8 10 14 17 19 20 18 16 16 15 15 16 16 14 12 11 11 11 11 11 10 10 11 10 8 5 4 4 5 4 2 0 0 0 0 0 0 0
7 8 8 7 7 8 10 13 16 18 19 18 16 16 15 15 15 12 10 9 9 10 10 10 11 10 10 10 10 8 7 6 5 5 3 1 0 0 0 0 0 0 0
4 5 5 4 5 7 10 12 15 16 16 16 15 15 16 16 14 10 7 6 6 7 7 9 10 9 9 9 8 6 5 5 5 4 2 2 1 0 0 0 0 0 0

GEFSMW_con_probscp_258.txt.gz
Probability
1 2 2 1 0 2 4 5 4 3 1 0 0 0 0 0 0 0 0 0 0 0 0 0 0 0 0 0 0 0 0 0 0 0 0 0 0 0 0 0 0 0 0
1 1 1 0 0 2 4 4 4 4 2 1 0 0 0 0 0 0 0 0 0 0 0 0 0 0 0 0 0 0 0 0 0 0 0 0 0 0 0 0 0 0 0
2 1 1 1 0 1 2 2 3 4 4 2 0 0 0 0 0 0 0 0 0 0 0 0 0 0 0 0 0 0 0 0 0 0 0 0 0 1 1 1 1 0 0
2 2 2 2 1 0 1 1 2 4 5 4 2 0 0 0 0 0 0 0 1 1 0 0 0 0 0 0 0 0 0 1 1 0 0 0 0 1 2 1 0 0 0
1 1 1 2 1 0 1 2 3 4 5 4 3 1 0 0 0 0 0 1 2 2 1 0 0 0 0 0 0 0 1 2 2 2 2 1 1 2 3 2 1 1 1
0 0 0 1 2 2 3 6 9 10 7 4 4 3 1 0 0 0 0 1 2 3 2 1 0 0 0 1 1 1 2 3 3 3 3 3 2 3 5 5 3 2 2
0 0 1 2 3 4 7 11 16 16 11 6 6 5 3 1 0 0 0 1 2 3 3 1 1 0 1 2 3 3 3 3 4 4 4 4 4 5 7 8 6 4 4
0 1 2 3 3 4 10 15 18 18 15 11 9 7 5 3 2 2 1 2 3 4 4 3 3 3 4 4 5 6 6 6 6 5 6 8 6 5 8 10 9 7 5
2 3 4 4 3 4 10 15 16 17 17 16 13 10 7 5 3 3 3 5 7 7 5 5 6 7 8 8 9 10 11 11 8 6 9 12 11 9 11 14 14 12 10
5 7 7 7 6 6 10 13 15 16 18 18 15 13 12 9 6 5 5 7 9 9 7 7 9 10 11 12 12 14 15 14 11 9 11 14 14 15 17 18 19 17 16
9 11 11 10 9 9 10 13 15 16 17 17 17 16 16 15 12 9 8 9 10 10 10 11 12 12 11 13 14 16 17 16 13 13 14 15 17 19 20 19 20 19 18
13 14 16 14 11 9 10 12 15 16 16 17 18 18 19 18 16 14 13 13 13 12 13 13 12 11 12 14 15 15 16 17 16 17 17 16 18 19 20 19 19 19 18
17 18 19 18 13 10 11 14 15 15 17 19 20 21 20 19 17 16 16 16 16 15 14 12 10 10 12 14 15 14 16 19 21 21 20 18 17 18 19 20 20 19 18
20 21 22 20 16 15 17 19 20 19 21 23 24 24 22 20 18 17 17 18 18 16 14 11 9 9 10 12 14 15 18 21 23 23 22 20 18 17 17 19 20 20 19
22 23 23 21 19 19 23 27 28 27 28 28 26 25 24 21 18 18 19 19 18 17 15 13 11 10 10 12 15 18 19 19 20 21 22 21 20 17 16 16 18 20 21
25 26 27 26 24 25 28 31 33 35 35 33 28 25 22 20 19 20 21 21 22 21 19 17 15 15 13 12 12 15 16 16 16 18 20 20 18 16 15 13 13 15 16
29 30 30 30 30 31 32 32 34 37 39 36 31 24 21 20 21 23 24 25 25 25 23 21 21 20 17 11 7 8 13 15 16 17 19 18 17 17 17 14 12 12 13
32 31 29 29 31 33 32 32 35 39 41 38 32 27 23 24 25 27 28 29 29 27 25 24 25 25 20 11 5 5 10 14 16 18 19 19 20 21 20 19 18 19 21
31 30 28 28 30 31 32 36 40 43 43 38 33 29 27 28 30 32 34 35 33 31 29 28 28 28 22 13 6 4 9 14 17 19 20 21 22 21 21 23 26 28 29
32 31 30 31 32 33 36 42 46 46 42 37 33 31 31 33 35 36 37 38 36 34 33 33 31 28 24 15 6 5 11 16 19 21 21 19 17 15 15 20 26 29 29
33 32 32 32 33 36 40 44 45 42 38 35 31 31 34 35 35 35 37 37 36 34 33 31 27 25 21 15 7 6 11 17 20 20 20 17 12 7 6 12 20 22 21
32 31 31 31 31 32 36 38 37 34 31 30 28 27 30 32 31 31 33 34 34 32 30 26 24 22 19 14 9 5 6 11 15 17 16 14 9 3 1 5 9 10 9
28 27 26 25 24 26 29 29 28 26 26 26 25 23 24 27 28 28 28 29 31 30 27 25 24 23 21 17 12 7 4 5 9 12 11 9 5 2 1 2 2 3 4
23 21 20 19 19 21 23 23 23 23 24 24 23 23 23 25 26 26 25 25 26 26 25 24 24 24 21 18 15 11 9 7 7 9 9 8 6 5 5 5 4 5 7
19 18 16 16 17 17 17 18 19 20 21 22 23 23 22 22 23 24 22 20 20 20 19 20 21 20 17 14 12 11 11 10 8 8 11 12 11 11 12 14 13 12 10
18 17 15 14 15 16 15 15 17 19 19 20 22 22 19 19 22 22 20 17 16 15 14 16 18 16 12 9 8 9 9 9 8 9 13 15 14 15 17 19 19 16 13

GEFSMW_con_probscp_264.txt.gz
Probability
15 11 7 10 17 21 20 16 13 11 8 5 2 2 3 3 3 3 3 2 1 0 0 1 1 2 3 4 3 3 2 1 1 1 2 5 7 7 6 4 3 3 3
16 14 12 12 18 24 23 18 15 12 8 6 3 1 1 2 2 3 4 3 1 1 2 3 3 3 4 4 3 3 3 2 1 1 2 4 5 6 5 4 3 4 4
21 20 19 17 18 23 24 21 20 17 11 8 5 2 2 1 1 2 3 3 2 2 4 5 6 6 6 6 5 5 4 3 2 3 3 3 4 4 4 4 4 4 6
26 25 23 20 18 20 21 23 26 23 17 12 8 6 5 4 2 1 3 5 4 3 5 7 9 10 9 9 9 9 9 7 5 5 6 5 5 5 5 5 4 5 7
28 26 23 21 18 17 18 22 26 26 22 16 11 9 8 8 7 6 8 10 10 7 6 8 11 14 13 12 13 14 14 11 9 8 8 9 8 8 6 4 4 5 7
28 25 23 21 20 18 18 20 24 25 24 18 12 9 9 11 13 13 14 15 14 13 11 12 15 15 14 14 15 16 16 14 12 11 11 11 10 10 9 6 5 6 7
23 24 25 25 25 24 22 23 26 27 26 21 16 13 11 11 14 16 16 15 14 15 16 17 19 18 15 15 15 15 17 16 13 11 12 11 10 11 12 11 8 7 7
17 21 25 28 30 31 30 31 33 33 30 25 21 19 16 13 13 14 15 14 12 13 16 18 19 20 17 15 14 15 17 17 14 12 13 12 10 11 13 14 13 10 9
14 18 24 29 32 34 35 37 40 40 35 29 25 23 19 16 14 15 15 13 12 12 15 18 19 19 18 16 15 16 17 18 17 15 15 13 11 11 12 14 15 13 11
13 17 24 29 32 34 36 39 44 45 40 34 29 25 23 20 18 18 18 17 15 15 17 19 19 19 18 16 16 17 18 20 19 18 16 14 12 11 12 13 15 15 15
16 20 26 31 33 33 33 37 43 46 43 39 35 31 27 24 22 22 23 23 20 18 19 21 21 19 18 17 16 16 17 19 19 19 17 16 14 13 14 15 17 18 19
19 23 30 34 36 35 33 34 39 41 39 37 37 35 32 29 27 26 26 25 23 21 21 23 24 22 21 21 21 19 18 19 21 21 21 20 20 19 19 21 22 22 22
23 27 35 42 44 42 40 38 36 34 33 35 38 39 37 35 32 30 28 27 26 26 26 28 29 28 27 28 28 26 23 23 24 25 24 23 24 26 25 25 24 24 23
26 31 41 49 52 51 49 45 37 32 34 39 43 44 43 41 39 35 32 31 31 31 31 31 31 31 32 32 31 28 26 24 24 24 24 24 26 28 26 23 23 23 23
30 36 47 54 56 55 52 47 42 39 41 46 49 49 47 45 42 37 35 36 35 33 32 32 32 32 30 28 28 28 25 22 21 21 21 22 23 23 21 18 18 20 21
33 40 49 53 53 52 49 48 46 46 48 51 51 50 48 46 43 39 38 40 38 34 33 33 33 32 26 20 20 24 23 20 18 18 19 19 18 17 15 13 12 13 14
36 41 47 48 47 47 47 47 47 47 50 51 50 50 49 47 44 41 41 43 42 38 36 37 37 36 27 16 12 15 20 19 16 17 18 16 14 14 14 13 10 9 9
40 43 43 41 41 42 43 43 43 46 49 51 51 52 52 50 46 44 43 44 44 42 40 41 43 42 31 16 8 10 17 20 18 17 17 15 13 13 14 15 15 15 14
47 46 41 37 38 40 41 41 42 45 49 52 53 52 53 52 49 47 46 45 45 44 43 43 45 45 35 18 7 9 16 21 20 18 16 13 12 11 12 16 21 23 23
49 46 41 38 39 42 43 43 43 46 50 53 52 52 53 53 51 50 48 47 46 44 43 44 44 44 35 20 8 8 16 20 20 19 16 11 9 9 9 14 20 24 24
44 42 41 40 41 44 45 44 43 44 48 51 51 50 51 51 51 50 49 47 45 42 43 43 43 41 33 19 7 6 12 17 21 21 17 12 7 5 4 8 14 18 18
40 41 42 42 42 43 42 41 40 41 43 46 47 47 48 48 47 47 47 46 44 42 41 42 41 38 30 18 7 3 5 10 17 19 15 9 5 2 2 4 8 9 9
43 42 41 42 41 39 38 39 39 39 39 41 43 43 43 43 43 43 43 42 40 38 37 37 37 35 29 20 10 3 0 3 10 12 8 4 2 1 1 2 3 5 5
40 38 37 39 38 37 36 37 37 37 37 38 39 38 37 37 39 39 37 33 32 31 30 30 30 29 26 21 14 7 3 4 7 8 6 4 4 4 4 5 6 8 9
31 31 32 33 33 32 32 34 34 35 36 35 32 31 31 33 34 33 27 22 21 20 20 21 23 23 20 16 13 10 8 8 9 10 10 11 10 9 9 10 13 15 15
25 27 29 29 27 26 27 30 31 33 34 31 27 25 27 30 31 27 20 14 13 12 13 14 17 19 16 10 9 10 11 11 11 12 14 14 13 12 11 14 18 20 21

GEFSMW_con_probscp_270.txt.gz
Probability
8 11 14 15 13 11 10 7 5 4 3 1 0 0 0 0 0 0 0 0 0 0 0 0 0 0 0 0 0 0 0 0 0 0 0 0 0 0 0 0 0 0 0
8 12 16 16 14 10 9 8 6 5 4 2 1 0 0 0 0 0 0 0 0 0 0 0 0 0 0 0 0 0 0 0 0 0 0 0 0 0 0 0 0 0 0
9 13 19 19 14 9 7 7 6 6 4 3 1 0 0 0 0 0 0 0 0 0 0 0 0 0 0 0 0 0 0 0 0 0 0 0 0 0 0 0 0 0 0
11 15 20 21 15 9 6 5 6 6 5 4 2 1 0 0 0 0 0 1 0 0 0 0 0 0 0 0 0 0 0 0 0 0 0 0 0 0 0 0 0 0 0
11 14 18 19 15 10 7 6 6 7 6 5 3 1 0 0 0 0 0 0 0 0 0 0 0 0 0 0 0 0 0 0 0 0 0 0 0 0 0 0 0 0 0
10 12 15 17 16 13 10 9 9 8 7 6 4 2 1 0 0 0 0 0 0 0 0 0 0 0 0 0 0 0 0 0 0 0 0 0 0 0 0 0 0 0 0
8 11 13 15 16 15 14 14 12 11 9 7 5 4 3 1 0 0 0 0 0 0 0 0 0 0 0 0 0 0 0 0 0 0 0 0 0 0 0 0 0 0 0
9 10 12 13 16 18 18 17 14 14 14 11 8 6 5 3 1 1 1 0 0 1 1 1 1 1 0 0 0 0 0 0 0 0 0 0 1 2 1 1 1 1 1
11 12 14 15 18 20 21 19 16 16 16 14 11 9 6 4 3 2 2 1 1 3 4 3 2 1 0 0 0 0 0 0 0 1 1 1 1 2 2 2 1 2 2
11 13 16 19 20 21 21 19 16 15 15 15 13 11 9 8 6 4 3 3 2 3 4 3 2 0 0 1 1 0 0 0 0 1 1 1 1 1 2 2 1 1 1
10 13 17 20 22 21 19 18 16 14 15 15 15 14 14 13 11 9 7 5 3 2 2 3 2 1 1 2 2 1 1 0 0 1 1 0 0 1 1 1 1 1 1
10 14 17 20 22 21 18 18 18 17 17 17 16 16 17 17 17 17 14 9 5 3 2 3 3 3 3 4 3 3 2 1 1 1 1 1 2 2 2 3 3 3 3
14 15 16 17 20 20 19 20 22 22 20 19 17 16 17 19 22 22 20 16 11 8 7 6 5 4 5 5 4 3 3 3 3 3 3 3 3 3 4 4 5 6 6
17 17 16 15 17 19 20 22 24 25 24 22 19 16 16 19 21 23 21 19 18 16 14 12 9 7 6 6 5 4 4 4 4 5 5 5 5 5 6 6 7 7 7
19 19 18 17 18 20 21 24 25 26 27 25 22 18 16 16 17 19 20 21 21 21 20 18 16 13 11 9 7 6 6 6 5 6 7 8 8 8 8 8 7 7 7
22 22 19 18 20 22 23 24 25 26 26 25 23 20 17 15 14 15 18 21 22 23 23 23 22 20 18 13 8 7 10 10 8 7 9 10 10 9 7 6 6 6 6
25 23 19 18 19 22 23 23 24 25 24 23 22 19 16 15 15 17 20 21 22 24 25 26 26 25 22 15 8 7 12 14 11 10 10 11 10 7 7 6 6 5 4
24 21 18 18 19 19 19 21 23 24 24 23 21 19 18 17 18 21 22 23 23 25 27 28 28 27 24 18 10 8 12 15 13 11 11 11 9 7 7 7 6 4 3
21 18 15 16 16 15 16 19 22 22 22 22 22 23 21 20 20 21 22 22 24 26 28 29 29 27 25 20 12 8 13 16 15 13 12 11 9 6 5 5 5 4 3
18 15 14 13 11 11 14 17 19 20 20 20 22 23 21 19 19 18 18 19 21 23 25 27 28 27 25 22 14 9 14 18 17 16 14 11 8 5 2 3 3 3 3
14 14 14 13 10 10 12 14 17 19 18 19 20 20 19 18 18 18 17 18 19 20 22 24 25 25 24 22 14 9 12 17 18 17 14 10 6 2 1 1 2 2 2
12 12 11 10 9 9 11 14 18 19 18 17 17 17 18 19 20 19 18 18 19 19 20 20 19 19 19 18 13 6 7 13 15 15 13 8 3 0 0 0 1 1 1
12 11 8 6 6 7 9 13 18 20 19 17 15 15 16 17 18 18 17 16 15 15 15 14 12 10 11 12 9 3 2 6 9 10 8 5 1 0 0 0 0 1 2
12 10 7 5 4 6 8 11 16 19 19 17 14 13 13 13 14 14 13 13 12 12 12 10 8 7 7 8 6 3 1 2 4 5 3 1 0 0 0 0 0 1 2
11 10 7 6 6 6 8 10 13 15 15 15 14 11 11 12 12 12 11 11 11 11 10 9 8 7 7 6 5 3 2 2 2 2 1 1 0 0 0 0 0 1 2
10 9 7 6 7 7 8 9 10 11 12 14 12 10 10 11 12 11 10 10 10 9 7 7 8 7 6 5 3 3 3 2 1 1 2 2 1 0 0 0 0 1 2

GEFSMW_con_probscp_276.txt.gz
Probability
6 6 7 8 7 4 1 0 0 0 0 0 0 0 0 0 0 0 0 0 0 0 0 0 0 0 0 0 0 0 0 0 0 0 0 0 0 0 0 0 0 0 0
5 5 6 6 5 3 1 0 0 0 0 0 0 0 0 0 0 0 0 0 0 0 0 0 0 0 0 0 0 0 0 0 0 0 0 0 0 0 0 0 0 0 0
4 5 5 5 4 3 1 0 0 0 0 0 0 0 0 0 0 0 0 0 0 0 0 0 0 0 0 0 0 0 0 0 0 0 0 0 0 0 0 0 0 0 0
5 5 5 5 5 4 3 1 1 0 0 0 0 0 0 0 0 0 0 0 0 0 0 0 0 0 0 0 0 0 0 0 0 0 0 0 0 0 0 1 1 0 0
6 7 7 6 6 6 4 3 2 1 2 2 1 1 0 0 0 0 0 0 0 0 0 0 0 0 0 0 0 0 0 0 0 0 0 1 1 1 1 2 2 1 0
9 9 9 7 6 6 5 3 2 2 3 3 3 3 2 0 0 0 0 0 0 1 1 1 0 0 0 0 0 0 0 0 0 0 1 2 2 2 3 3 2 1 0
10 10 10 9 7 6 5 3 2 2 3 4 4 5 3 1 0 0 0 0 0 1 2 2 1 0 1 1 1 1 0 0 0 0 1 3 3 3 3 3 3 1 0
8 10 12 12 10 6 4 4 2 2 2 3 4 5 4 2 0 0 0 0 0 0 1 2 1 1 2 2 1 1 1 1 1 1 2 3 3 3 3 3 3 2 1
9 11 13 12 10 6 4 3 2 2 2 3 4 4 5 4 2 1 1 1 1 0 1 1 2 2 3 3 3 2 2 2 2 3 3 3 3 3 3 3 3 3 3
11 11 12 10 8 6 4 3 2 3 3 4 5 6 7 8 6 4 3 2 2 2 2 2 3 4 5 4 4 3 3 3 3 3 3 3 3 3 3 3 3 3 3
10 10 9 7 7 7 6 5 5 5 6 7 7 9 11 12 12 9 6 5 4 3 3 3 3 4 5 6 5 4 3 3 3 3 3 3 4 4 3 3 3 3 3
8 8 7 5 5 7 8 7 6 7 9 10 10 12 14 15 15 14 10 7 6 5 4 3 3 3 4 5 6 4 3 3 3 3 3 4 5 5 4 4 3 3 3
8 8 6 4 4 6 8 8 7 8 10 11 12 13 14 15 15 14 13 11 10 9 8 7 6 5 4 5 6 5 4 3 3 3 3 4 6 6 6 5 4 3 3
11 9 6 3 3 5 8 10 11 11 11 12 12 12 12 12 12 12 12 12 13 13 13 13 11 8 7 7 8 8 7 6 5 4 4 4 5 6 7 8 8 7 6
13 10 6 4 4 6 9 12 14 15 13 11 10 10 10 11 11 12 12 12 14 14 14 15 16 14 11 10 10 12 13 11 9 7 6 5 5 6 7 9 10 11 11
13 10 7 6 6 8 11 14 15 14 13 11 10 10 12 14 14 14 14 14 14 13 12 14 17 17 15 12 10 12 16 18 16 13 10 7 6 7 7 7 7 9 10
10 9 9 8 7 10 14 15 12 10 11 13 13 13 15 18 19 18 16 15 14 13 13 14 16 17 16 11 7 7 14 20 21 19 16 13 10 8 8 7 6 7 7
7 7 8 9 9 11 14 13 11 10 12 14 15 14 15 18 19 18 17 16 15 14 14 13 14 14 13 11 6 5 11 19 23 22 20 19 15 11 9 10 10 9 8
6 6 6 8 10 12 13 12 11 11 12 13 13 13 13 14 15 15 15 15 15 14 13 12 12 12 12 11 7 5 11 18 21 20 19 19 17 12 9 9 10 11 11
6 6 6 7 9 11 12 12 11 11 11 12 11 11 10 10 10 12 13 13 13 13 12 11 10 11 11 10 6 5 11 17 20 20 19 17 14 10 6 6 9 10 11
7 8 9 9 8 9 9 10 10 10 10 11 11 11 10 10 9 9 10 10 10 11 10 9 8 8 9 8 4 3 8 14 18 20 20 17 12 6 2 3 6 8 8
8 11 12 11 8 7 7 8 8 9 9 10 11 11 12 11 9 8 7 6 7 7 6 5 4 4 6 6 3 2 4 9 13 17 18 15 9 3 1 1 3 3 2
8 10 11 11 8 6 6 6 6 6 7 8 8 10 11 12 10 8 6 5 4 4 3 2 1 1 2 3 2 1 1 3 6 10 11 8 4 1 0 0 0 0 1
8 8 8 8 6 4 4 4 4 4 6 6 7 8 10 11 11 9 8 6 4 3 3 2 1 1 1 1 0 1 2 2 3 5 6 4 2 1 1 1 1 1 1
6 6 6 6 5 3 2 1 2 4 6 6 6 7 9 9 9 8 7 7 5 4 4 4 3 1 0 0 0 1 2 3 3 4 5 5 5 4 5 5 4 2 1
4 4 5 5 5 3 2 1 1 4 6 6 6 7 8 8 6 6 6 6 5 4 4 4 4 2 1 1 1 0 1 2 2 3 5 6 7 8 9 9 7 3 1